Wetterdaten: Donnerstag, 20.05.2010
Datum Zeit Temp. Innen Temp. Aussen UV X Diff Temp. Feuchte Inne Feuchte Auss Sonnenschein Luftdruck Regen ab 0,1 Wind Sonnenschein Windben
20.05.2010 00:00 17,9 C 13,2 C 0,0 UV-I 0,0 C 48 % 55 % 0 % 1029,9 hPa 0,0 l/m 10,8 km/h (2 Bft) 0 min 10,9 km/h (2 Bft)
20.05.2010 00:02 17,9 C 13,2 C 0,0 UV-I 0,0 C 48 % 56 % 0 % 1029,9 hPa 0,0 l/m 10,8 km/h (2 Bft) 0 min 9,7 km/h (2 Bft)
20.05.2010 00:04 17,9 C 13,1 C 0,0 UV-I 0,0 C 48 % 56 % 0 % 1029,9 hPa 0,0 l/m 11,2 km/h (2 Bft) 0 min 8,0 km/h (2 Bft)
20.05.2010 00:06 17,9 C 13,0 C 0,0 UV-I 0,0 C 48 % 56 % 0 % 1029,9 hPa 0,0 l/m 10,4 km/h (2 Bft) 0 min 5,8 km/h (2 Bft)
20.05.2010 00:08 17,9 C 13,1 C 0,0 UV-I 0,0 C 48 % 56 % 0 % 1029,9 hPa 0,0 l/m 10,0 km/h (2 Bft) 0 min 3,2 km/h (1 Bft)
20.05.2010 00:10 17,9 C 13,1 C 0,0 UV-I 0,0 C 48 % 57 % 0 % 1029,9 hPa 0,0 l/m 8,4 km/h (2 Bft) 0 min 6,4 km/h (2 Bft)
20.05.2010 00:12 17,9 C 13,1 C 0,0 UV-I 0,0 C 48 % 58 % 0 % 1029,9 hPa 0,0 l/m 7,2 km/h (2 Bft) 0 min 7,1 km/h (2 Bft)
20.05.2010 00:14 17,8 C 13,0 C 0,0 UV-I 0,0 C 48 % 58 % 0 % 1029,9 hPa 0,0 l/m 6,8 km/h (2 Bft) 0 min 6,8 km/h (2 Bft)
20.05.2010 00:18 17,9 C 12,9 C 0,0 UV-I 0,0 C 48 % 60 % 0 % 1029,9 hPa 0,0 l/m 6,8 km/h (2 Bft) 0 min 7,7 km/h (2 Bft)
20.05.2010 00:20 17,8 C 12,8 C 0,0 UV-I 0,0 C 48 % 60 % 0 % 1029,9 hPa 0,0 l/m 6,8 km/h (2 Bft) 0 min 16,4 km/h (3 Bft)
20.05.2010 00:22 17,8 C 12,8 C 0,0 UV-I 0,0 C 48 % 61 % 0 % 1029,9 hPa 0,0 l/m 7,2 km/h (2 Bft) 0 min 6,8 km/h (2 Bft)
20.05.2010 00:24 17,8 C 12,8 C 0,0 UV-I 0,0 C 48 % 61 % 0 % 1029,9 hPa 0,0 l/m 7,2 km/h (2 Bft) 0 min 6,8 km/h (2 Bft)
20.05.2010 00:26 17,8 C 12,7 C 0,0 UV-I 0,0 C 48 % 61 % 0 % 1029,9 hPa 0,0 l/m 6,8 km/h (2 Bft) 0 min 7,1 km/h (2 Bft)
20.05.2010 00:28 17,8 C 12,7 C 0,0 UV-I 0,0 C 48 % 61 % 0 % 1029,9 hPa 0,0 l/m 5,6 km/h (1 Bft) 0 min 3,9 km/h (1 Bft)
20.05.2010 00:30 17,8 C 12,7 C 0,0 UV-I 0,0 C 48 % 61 % 0 % 1029,9 hPa 0,0 l/m 6,0 km/h (2 Bft) 0 min 25,1 km/h (4 Bft)
20.05.2010 00:32 17,8 C 12,6 C 0,0 UV-I 0,0 C 48 % 62 % 0 % 1030,2 hPa 0,0 l/m 6,8 km/h (2 Bft) 0 min 4,8 km/h (1 Bft)
20.05.2010 00:34 17,8 C 12,7 C 0,0 UV-I 0,0 C 48 % 62 % 0 % 1030,2 hPa 0,0 l/m 6,4 km/h (2 Bft) 0 min 5,5 km/h (1 Bft)
20.05.2010 00:36 17,8 C 12,6 C 0,0 UV-I 0,0 C 49 % 62 % 0 % 1030,2 hPa 0,0 l/m 7,6 km/h (2 Bft) 0 min 15,4 km/h (3 Bft)
20.05.2010 00:38 17,8 C 12,5 C 0,0 UV-I 0,0 C 49 % 62 % 0 % 1030,2 hPa 0,0 l/m 8,4 km/h (2 Bft) 0 min 10,6 km/h (2 Bft)
20.05.2010 00:40 17,8 C 12,5 C 0,0 UV-I 0,0 C 49 % 62 % 0 % 1030,2 hPa 0,0 l/m 7,6 km/h (2 Bft) 0 min 4,2 km/h (1 Bft)
20.05.2010 00:42 17,8 C 12,4 C 0,0 UV-I 0,0 C 49 % 63 % 0 % 1030,2 hPa 0,0 l/m 7,6 km/h (2 Bft) 0 min 20,0 km/h (4 Bft)
20.05.2010 00:44 17,8 C 12,5 C 0,0 UV-I 0,0 C 49 % 63 % 0 % 1030,2 hPa 0,0 l/m 7,2 km/h (2 Bft) 0 min 8,4 km/h (2 Bft)
20.05.2010 00:46 17,8 C 12,4 C 0,0 UV-I 0,0 C 49 % 63 % 0 % 1030,2 hPa 0,0 l/m 7,6 km/h (2 Bft) 0 min 11,6 km/h (2 Bft)
20.05.2010 00:48 17,8 C 12,3 C 0,0 UV-I 0,0 C 49 % 63 % 0 % 1030,2 hPa 0,0 l/m 7,6 km/h (2 Bft) 0 min 7,4 km/h (2 Bft)
20.05.2010 00:50 17,8 C 12,3 C 0,0 UV-I 0,0 C 49 % 63 % 0 % 1030,2 hPa 0,0 l/m 8,8 km/h (2 Bft) 0 min 8,7 km/h (2 Bft)
20.05.2010 00:52 17,8 C 12,3 C 0,0 UV-I 0,0 C 49 % 64 % 0 % 1030,1 hPa 0,0 l/m 9,6 km/h (2 Bft) 0 min 7,4 km/h (2 Bft)
20.05.2010 00:54 17,7 C 12,1 C 0,0 UV-I 0,0 C 49 % 64 % 0 % 1030,1 hPa 0,0 l/m 9,6 km/h (2 Bft) 0 min 7,1 km/h (2 Bft)
20.05.2010 00:56 17,8 C 12,1 C 0,0 UV-I 0,0 C 49 % 64 % 0 % 1030,1 hPa 0,0 l/m 9,6 km/h (2 Bft) 0 min 17,1 km/h (3 Bft)
20.05.2010 00:58 17,7 C 12,0 C 0,0 UV-I 0,0 C 49 % 64 % 0 % 1030,1 hPa 0,0 l/m 9,6 km/h (2 Bft) 0 min 5,5 km/h (1 Bft)
20.05.2010 01:00 17,7 C 12,1 C 0,0 UV-I 0,0 C 49 % 64 % 0 % 1030,1 hPa 0,0 l/m 8,8 km/h (2 Bft) 0 min 9,0 km/h (2 Bft)
20.05.2010 01:02 17,7 C 12,0 C 0,0 UV-I 0,0 C 49 % 64 % 0 % 1030,1 hPa 0,0 l/m 8,4 km/h (2 Bft) 0 min 6,4 km/h (2 Bft)
20.05.2010 01:04 17,7 C 11,9 C 0,0 UV-I 0,0 C 49 % 64 % 0 % 1030,1 hPa 0,0 l/m 7,6 km/h (2 Bft) 0 min 8,7 km/h (2 Bft)
20.05.2010 01:06 17,8 C 11,9 C 0,0 UV-I 0,0 C 49 % 64 % 0 % 1030,1 hPa 0,0 l/m 7,6 km/h (2 Bft) 0 min 3,5 km/h (1 Bft)
20.05.2010 01:08 17,7 C 11,8 C 0,0 UV-I 0,0 C 49 % 64 % 0 % 1030,1 hPa 0,0 l/m 6,8 km/h (2 Bft) 0 min 10,6 km/h (2 Bft)
20.05.2010 01:10 17,7 C 11,9 C 0,0 UV-I 0,0 C 49 % 64 % 0 % 1030,1 hPa 0,0 l/m 7,2 km/h (2 Bft) 0 min 7,7 km/h (2 Bft)
20.05.2010 01:12 17,7 C 11,7 C 0,0 UV-I 0,0 C 49 % 65 % 0 % 1029,4 hPa 0,0 l/m 7,6 km/h (2 Bft) 0 min 8,7 km/h (2 Bft)
20.05.2010 01:14 17,7 C 11,7 C 0,0 UV-I 0,0 C 49 % 65 % 0 % 1029,4 hPa 0,0 l/m 8,0 km/h (2 Bft) 0 min 11,6 km/h (2 Bft)
20.05.2010 01:16 17,7 C 11,6 C 0,0 UV-I 0,0 C 49 % 65 % 0 % 1029,4 hPa 0,0 l/m 8,8 km/h (2 Bft) 0 min 5,1 km/h (1 Bft)
20.05.2010 01:18 17,7 C 11,6 C 0,0 UV-I 0,0 C 49 % 65 % 0 % 1029,4 hPa 0,0 l/m 9,2 km/h (2 Bft) 0 min 9,3 km/h (2 Bft)
20.05.2010 01:20 17,7 C 11,6 C 0,0 UV-I 0,0 C 49 % 65 % 0 % 1029,4 hPa 0,0 l/m 9,2 km/h (2 Bft) 0 min 12,6 km/h (3 Bft)
20.05.2010 01:22 17,7 C 11,6 C 0,0 UV-I 0,0 C 49 % 65 % 0 % 1029,4 hPa 0,0 l/m 8,0 km/h (2 Bft) 0 min 5,1 km/h (1 Bft)
20.05.2010 01:24 17,7 C 11,5 C 0,0 UV-I 0,0 C 49 % 65 % 0 % 1029,4 hPa 0,0 l/m 8,0 km/h (2 Bft) 0 min 6,1 km/h (2 Bft)
20.05.2010 01:26 17,6 C 11,5 C 0,0 UV-I 0,0 C 49 % 65 % 0 % 1029,4 hPa 0,0 l/m 6,4 km/h (2 Bft) 0 min 12,2 km/h (2 Bft)
20.05.2010 01:28 17,6 C 11,5 C 0,0 UV-I 0,0 C 49 % 66 % 0 % 1029,4 hPa 0,0 l/m 6,4 km/h (2 Bft) 0 min 5,5 km/h (1 Bft)
20.05.2010 01:30 17,6 C 11,5 C 0,0 UV-I 0,0 C 49 % 66 % 0 % 1029,4 hPa 0,0 l/m 5,6 km/h (1 Bft) 0 min 4,8 km/h (1 Bft)
20.05.2010 01:32 17,6 C 11,3 C 0,0 UV-I 0,0 C 49 % 66 % 0 % 1030,1 hPa 0,0 l/m 5,2 km/h (1 Bft) 0 min 10,3 km/h (2 Bft)
20.05.2010 01:34 17,6 C 11,3 C 0,0 UV-I 0,0 C 49 % 66 % 0 % 1030,1 hPa 0,0 l/m 5,6 km/h (1 Bft) 0 min 7,7 km/h (2 Bft)
20.05.2010 01:36 17,6 C 11,3 C 0,0 UV-I 0,0 C 49 % 66 % 0 % 1030,1 hPa 0,0 l/m 6,4 km/h (2 Bft) 0 min 6,1 km/h (2 Bft)
20.05.2010 01:38 17,6 C 11,2 C 0,0 UV-I 0,0 C 49 % 66 % 0 % 1030,1 hPa 0,0 l/m 5,2 km/h (1 Bft) 0 min 3,9 km/h (1 Bft)
20.05.2010 01:42 17,6 C 11,2 C 0,0 UV-I 0,0 C 49 % 67 % 0 % 1030,1 hPa 0,0 l/m 6,8 km/h (2 Bft) 0 min 7,7 km/h (2 Bft)
20.05.2010 01:44 17,6 C 11,2 C 0,0 UV-I 0,0 C 49 % 67 % 0 % 1030,1 hPa 0,0 l/m 6,4 km/h (2 Bft) 0 min 9,0 km/h (2 Bft)
20.05.2010 01:46 17,6 C 11,1 C 0,0 UV-I 0,0 C 49 % 67 % 0 % 1030,1 hPa 0,0 l/m 6,4 km/h (2 Bft) 0 min 4,2 km/h (1 Bft)
20.05.2010 01:48 17,6 C 11,1 C 0,0 UV-I 0,0 C 49 % 67 % 0 % 1030,1 hPa 0,0 l/m 6,4 km/h (2 Bft) 0 min 0,0 km/h (0 Bft)
20.05.2010 01:50 17,6 C 11,1 C 0,0 UV-I 0,0 C 49 % 67 % 0 % 1030,1 hPa 0,0 l/m 6,0 km/h (2 Bft) 0 min 4,8 km/h (1 Bft)
20.05.2010 01:52 17,6 C 10,9 C 0,0 UV-I 0,0 C 49 % 67 % 0 % 1030,2 hPa 0,0 l/m 4,8 km/h (1 Bft) 0 min 0,0 km/h (0 Bft)
20.05.2010 01:54 17,6 C 10,9 C 0,0 UV-I 0,0 C 49 % 67 % 0 % 1030,2 hPa 0,0 l/m 3,6 km/h (1 Bft) 0 min 4,8 km/h (1 Bft)
20.05.2010 01:58 17,6 C 10,8 C 0,0 UV-I 0,0 C 49 % 67 % 0 % 1030,2 hPa 0,0 l/m 2,0 km/h (1 Bft) 0 min 0,0 km/h (0 Bft)
20.05.2010 02:00 17,6 C 10,9 C 0,0 UV-I 0,0 C 49 % 67 % 0 % 1030,2 hPa 0,0 l/m 2,0 km/h (1 Bft) 0 min 0,0 km/h (0 Bft)
20.05.2010 02:02 17,6 C 10,8 C 0,0 UV-I 0,0 C 49 % 68 % 0 % 1030,2 hPa 0,0 l/m 1,6 km/h (1 Bft) 0 min 5,8 km/h (2 Bft)
20.05.2010 02:04 17,6 C 10,8 C 0,0 UV-I 0,0 C 49 % 68 % 0 % 1030,2 hPa 0,0 l/m 2,0 km/h (1 Bft) 0 min 8,0 km/h (2 Bft)
20.05.2010 02:06 17,5 C 10,7 C 0,0 UV-I 0,0 C 49 % 68 % 0 % 1030,2 hPa 0,0 l/m 2,0 km/h (1 Bft) 0 min 7,4 km/h (2 Bft)
20.05.2010 02:08 17,5 C 10,7 C 0,0 UV-I 0,0 C 49 % 68 % 0 % 1030,2 hPa 0,0 l/m 2,0 km/h (1 Bft) 0 min 0,0 km/h (0 Bft)
20.05.2010 02:12 17,5 C 10,7 C 0,0 UV-I 0,0 C 49 % 69 % 0 % 1030,2 hPa 0,0 l/m 2,4 km/h (1 Bft) 0 min 3,9 km/h (1 Bft)
20.05.2010 02:14 17,5 C 10,7 C 0,0 UV-I 0,0 C 49 % 69 % 0 % 1030,2 hPa 0,0 l/m 2,8 km/h (1 Bft) 0 min 4,5 km/h (1 Bft)
20.05.2010 02:16 17,5 C 10,6 C 0,0 UV-I 0,0 C 49 % 69 % 0 % 1030,2 hPa 0,0 l/m 2,4 km/h (1 Bft) 0 min 3,2 km/h (1 Bft)
20.05.2010 02:18 17,5 C 10,5 C 0,0 UV-I 0,0 C 49 % 69 % 0 % 1030,2 hPa 0,0 l/m 2,0 km/h (1 Bft) 0 min 6,1 km/h (2 Bft)
20.05.2010 02:20 17,5 C 10,5 C 0,0 UV-I 0,0 C 49 % 69 % 0 % 1030,2 hPa 0,0 l/m 2,4 km/h (1 Bft) 0 min 0,0 km/h (0 Bft)
20.05.2010 02:22 17,5 C 10,5 C 0,0 UV-I 0,0 C 49 % 69 % 0 % 1030,2 hPa 0,0 l/m 2,4 km/h (1 Bft) 0 min 4,5 km/h (1 Bft)
20.05.2010 02:24 17,5 C 10,4 C 0,0 UV-I 0,0 C 49 % 69 % 0 % 1030,2 hPa 0,0 l/m 3,2 km/h (1 Bft) 0 min 8,7 km/h (2 Bft)
20.05.2010 02:26 17,5 C 10,4 C 0,0 UV-I 0,0 C 49 % 69 % 0 % 1030,2 hPa 0,0 l/m 3,2 km/h (1 Bft) 0 min 4,8 km/h (1 Bft)
20.05.2010 02:28 17,5 C 10,5 C 0,0 UV-I 0,0 C 49 % 70 % 0 % 1030,2 hPa 0,0 l/m 3,2 km/h (1 Bft) 0 min 5,8 km/h (2 Bft)
20.05.2010 02:30 17,5 C 10,4 C 0,0 UV-I 0,0 C 49 % 69 % 0 % 1030,2 hPa 0,0 l/m 2,8 km/h (1 Bft) 0 min 4,2 km/h (1 Bft)
20.05.2010 02:32 17,5 C 10,3 C 0,0 UV-I 0,0 C 49 % 69 % 0 % 1030,1 hPa 0,0 l/m 3,2 km/h (1 Bft) 0 min 0,0 km/h (0 Bft)
20.05.2010 02:34 17,4 C 10,3 C 0,0 UV-I 0,0 C 49 % 69 % 0 % 1030,1 hPa 0,0 l/m 2,4 km/h (1 Bft) 0 min 0,0 km/h (0 Bft)
20.05.2010 02:36 17,4 C 10,3 C 0,0 UV-I 0,0 C 49 % 69 % 0 % 1030,1 hPa 0,0 l/m 2,0 km/h (1 Bft) 0 min 0,0 km/h (0 Bft)
20.05.2010 02:38 17,4 C 10,3 C 0,0 UV-I 0,0 C 49 % 70 % 0 % 1030,1 hPa 0,0 l/m 1,6 km/h (1 Bft) 0 min 0,0 km/h (0 Bft)
20.05.2010 02:40 17,4 C 10,3 C 0,0 UV-I 0,0 C 49 % 70 % 0 % 1030,1 hPa 0,0 l/m 1,2 km/h (1 Bft) 0 min 0,0 km/h (0 Bft)
20.05.2010 02:42 17,4 C 10,2 C 0,0 UV-I 0,0 C 49 % 70 % 0 % 1030,1 hPa 0,0 l/m 0,8 km/h (0 Bft) 0 min 0,0 km/h (0 Bft)
20.05.2010 02:44 17,4 C 10,1 C 0,0 UV-I 0,0 C 50 % 70 % 0 % 1030,1 hPa 0,0 l/m 0,4 km/h (0 Bft) 0 min 0,0 km/h (0 Bft)
20.05.2010 02:46 17,4 C 10,1 C 0,0 UV-I 0,0 C 50 % 70 % 0 % 1030,1 hPa 0,0 l/m 0,4 km/h (0 Bft) 0 min 0,0 km/h (0 Bft)
20.05.2010 02:48 17,4 C 10,0 C 0,0 UV-I 0,0 C 50 % 71 % 0 % 1030,1 hPa 0,0 l/m 0,4 km/h (0 Bft) 0 min 0,0 km/h (0 Bft)
20.05.2010 02:50 17,4 C 10,1 C 0,0 UV-I 0,0 C 50 % 71 % 0 % 1030,1 hPa 0,0 l/m 0,4 km/h (0 Bft) 0 min 0,0 km/h (0 Bft)
20.05.2010 02:52 17,4 C 10,0 C 0,0 UV-I 0,0 C 50 % 71 % 0 % 1030,3 hPa 0,0 l/m 0,0 km/h (0 Bft) 0 min 0,0 km/h (0 Bft)
20.05.2010 02:54 17,4 C 10,0 C 0,0 UV-I 0,0 C 50 % 72 % 0 % 1030,3 hPa 0,0 l/m 0,0 km/h (0 Bft) 0 min 0,0 km/h (0 Bft)
20.05.2010 02:56 17,4 C 9,9 C 0,0 UV-I 0,0 C 50 % 72 % 0 % 1030,3 hPa 0,0 l/m 0,0 km/h (0 Bft) 0 min 0,0 km/h (0 Bft)
20.05.2010 02:58 17,4 C 9,9 C 0,0 UV-I 0,0 C 50 % 72 % 0 % 1030,3 hPa 0,0 l/m 0,0 km/h (0 Bft) 0 min 0,0 km/h (0 Bft)
20.05.2010 03:00 17,4 C 9,9 C 0,0 UV-I 0,0 C 50 % 72 % 0 % 1030,3 hPa 0,0 l/m 0,0 km/h (0 Bft) 0 min 0,0 km/h (0 Bft)
20.05.2010 03:02 17,4 C 9,9 C 0,0 UV-I 0,0 C 50 % 72 % 0 % 1030,3 hPa 0,0 l/m 0,0 km/h (0 Bft) 0 min 0,0 km/h (0 Bft)
20.05.2010 03:04 17,4 C 9,8 C 0,0 UV-I 0,0 C 50 % 72 % 0 % 1030,3 hPa 0,0 l/m 0,0 km/h (0 Bft) 0 min 0,0 km/h (0 Bft)
20.05.2010 03:06 17,4 C 9,7 C 0,0 UV-I 0,0 C 50 % 72 % 0 % 1030,3 hPa 0,0 l/m 0,0 km/h (0 Bft) 0 min 0,0 km/h (0 Bft)
20.05.2010 03:08 17,2 C 9,6 C 0,0 UV-I 0,0 C 50 % 72 % 0 % 1030,3 hPa 0,0 l/m 0,0 km/h (0 Bft) 0 min 0,0 km/h (0 Bft)
20.05.2010 03:10 17,2 C 9,6 C 0,0 UV-I 0,0 C 50 % 72 % 0 % 1030,3 hPa 0,0 l/m 0,0 km/h (0 Bft) 0 min 0,0 km/h (0 Bft)
20.05.2010 03:12 17,2 C 9,6 C 0,0 UV-I 0,0 C 50 % 72 % 0 % 1030,2 hPa 0,0 l/m 0,0 km/h (0 Bft) 0 min 0,0 km/h (0 Bft)
20.05.2010 03:16 17,2 C 9,6 C 0,0 UV-I 0,0 C 50 % 73 % 0 % 1030,2 hPa 0,0 l/m 0,4 km/h (0 Bft) 0 min 7,1 km/h (2 Bft)
20.05.2010 03:18 17,2 C 9,5 C 0,0 UV-I 0,0 C 50 % 73 % 0 % 1030,2 hPa 0,0 l/m 0,4 km/h (0 Bft) 0 min 0,0 km/h (0 Bft)
20.05.2010 03:20 17,2 C 9,5 C 0,0 UV-I 0,0 C 50 % 73 % 0 % 1030,2 hPa 0,0 l/m 0,4 km/h (0 Bft) 0 min 0,0 km/h (0 Bft)
20.05.2010 03:22 17,3 C 9,4 C 0,0 UV-I 0,0 C 50 % 73 % 0 % 1030,2 hPa 0,0 l/m 0,8 km/h (0 Bft) 0 min 4,2 km/h (1 Bft)
20.05.2010 03:24 17,3 C 9,5 C 0,0 UV-I 0,0 C 50 % 73 % 0 % 1030,2 hPa 0,0 l/m 0,8 km/h (0 Bft) 0 min 4,2 km/h (1 Bft)
20.05.2010 03:26 17,3 C 9,5 C 0,0 UV-I 0,0 C 50 % 73 % 0 % 1030,2 hPa 0,0 l/m 0,4 km/h (0 Bft) 0 min 0,0 km/h (0 Bft)
20.05.2010 03:28 17,2 C 9,3 C 0,0 UV-I 0,0 C 50 % 73 % 0 % 1030,2 hPa 0,0 l/m 0,4 km/h (0 Bft) 0 min 0,0 km/h (0 Bft)
20.05.2010 03:30 17,2 C 9,3 C 0,0 UV-I 0,0 C 50 % 73 % 0 % 1030,2 hPa 0,0 l/m 0,4 km/h (0 Bft) 0 min 0,0 km/h (0 Bft)
20.05.2010 03:32 17,2 C 9,3 C 0,0 UV-I 0,0 C 50 % 73 % 0 % 1030,1 hPa 0,0 l/m 0,4 km/h (0 Bft) 0 min 0,0 km/h (0 Bft)
20.05.2010 03:34 17,2 C 9,2 C 0,0 UV-I 0,0 C 50 % 74 % 0 % 1030,1 hPa 0,0 l/m 0,4 km/h (0 Bft) 0 min 0,0 km/h (0 Bft)
20.05.2010 03:36 17,2 C 9,3 C 0,0 UV-I 0,0 C 50 % 74 % 0 % 1030,1 hPa 0,0 l/m 0,0 km/h (0 Bft) 0 min 0,0 km/h (0 Bft)
20.05.2010 03:40 17,2 C 9,1 C 0,0 UV-I 0,0 C 50 % 74 % 0 % 1030,1 hPa 0,0 l/m 0,4 km/h (0 Bft) 0 min 4,2 km/h (1 Bft)
20.05.2010 03:42 17,2 C 9,1 C 0,0 UV-I 0,0 C 50 % 74 % 0 % 1030,1 hPa 0,0 l/m 0,4 km/h (0 Bft) 0 min 0,0 km/h (0 Bft)
20.05.2010 03:44 17,2 C 9,0 C 0,0 UV-I 0,0 C 50 % 74 % 0 % 1030,1 hPa 0,0 l/m 0,4 km/h (0 Bft) 0 min 0,0 km/h (0 Bft)
20.05.2010 03:46 17,2 C 9,1 C 0,0 UV-I 0,0 C 50 % 74 % 0 % 1030,1 hPa 0,0 l/m 0,4 km/h (0 Bft) 0 min 0,0 km/h (0 Bft)
20.05.2010 03:48 17,2 C 9,0 C 0,0 UV-I 0,0 C 50 % 74 % 0 % 1030,1 hPa 0,0 l/m 0,4 km/h (0 Bft) 0 min 0,0 km/h (0 Bft)
20.05.2010 03:50 17,2 C 8,9 C 0,0 UV-I 0,0 C 50 % 74 % 0 % 1030,1 hPa 0,0 l/m 0,0 km/h (0 Bft) 0 min 0,0 km/h (0 Bft)
20.05.2010 03:52 17,2 C 8,9 C 0,0 UV-I 0,0 C 50 % 75 % 0 % 1029,9 hPa 0,0 l/m 0,0 km/h (0 Bft) 0 min 0,0 km/h (0 Bft)
20.05.2010 03:54 17,2 C 8,9 C 0,0 UV-I 0,0 C 50 % 75 % 0 % 1029,9 hPa 0,0 l/m 0,0 km/h (0 Bft) 0 min 0,0 km/h (0 Bft)
20.05.2010 03:56 17,2 C 8,8 C 0,0 UV-I 0,0 C 50 % 75 % 0 % 1029,9 hPa 0,0 l/m 0,0 km/h (0 Bft) 0 min 0,0 km/h (0 Bft)
20.05.2010 03:58 17,1 C 8,8 C 0,0 UV-I 0,0 C 50 % 75 % 0 % 1029,9 hPa 0,0 l/m 0,0 km/h (0 Bft) 0 min 0,0 km/h (0 Bft)
20.05.2010 04:00 17,1 C 8,8 C 0,0 UV-I 0,0 C 50 % 75 % 0 % 1029,9 hPa 0,0 l/m 0,0 km/h (0 Bft) 0 min 0,0 km/h (0 Bft)
20.05.2010 04:02 17,1 C 8,8 C 0,0 UV-I 0,0 C 50 % 75 % 0 % 1029,9 hPa 0,0 l/m 0,0 km/h (0 Bft) 0 min 0,0 km/h (0 Bft)
20.05.2010 04:04 17,1 C 8,7 C 0,0 UV-I 0,0 C 50 % 76 % 0 % 1029,9 hPa 0,0 l/m 0,0 km/h (0 Bft) 0 min 0,0 km/h (0 Bft)
20.05.2010 04:06 17,1 C 8,7 C 0,0 UV-I 0,0 C 50 % 76 % 0 % 1029,9 hPa 0,0 l/m 0,0 km/h (0 Bft) 0 min 0,0 km/h (0 Bft)
20.05.2010 04:08 17,0 C 8,7 C 0,0 UV-I 0,0 C 50 % 76 % 0 % 1029,9 hPa 0,0 l/m 0,0 km/h (0 Bft) 0 min 0,0 km/h (0 Bft)
20.05.2010 04:10 17,0 C 8,6 C 0,0 UV-I 0,0 C 50 % 76 % 0 % 1029,9 hPa 0,0 l/m 0,0 km/h (0 Bft) 0 min 0,0 km/h (0 Bft)
20.05.2010 04:13 17,0 C 8,7 C 0,0 UV-I 0,0 C 50 % 76 % 0 % 1030,2 hPa 0,0 l/m 0,0 km/h (0 Bft) 0 min 0,0 km/h (0 Bft)
20.05.2010 04:18 17,0 C 8,5 C 0,0 UV-I 0,0 C 50 % 76 % 0 % 1030,2 hPa 0,0 l/m 0,0 km/h (0 Bft) 0 min 3,2 km/h (1 Bft)
20.05.2010 04:19 17,0 C 8,5 C 0,0 UV-I 0,0 C 50 % 76 % 0 % 1030,2 hPa 0,0 l/m 0,0 km/h (0 Bft) 0 min 3,2 km/h (1 Bft)
20.05.2010 04:22 17,0 C 8,5 C 0,0 UV-I 0,0 C 50 % 76 % 0 % 1030,2 hPa 0,0 l/m 0,0 km/h (0 Bft) 0 min 0,0 km/h (0 Bft)
20.05.2010 04:24 17,0 C 8,4 C 0,0 UV-I 0,0 C 50 % 77 % 0 % 1030,2 hPa 0,0 l/m 0,0 km/h (0 Bft) 0 min 0,0 km/h (0 Bft)
20.05.2010 04:26 16,9 C 8,4 C 0,0 UV-I 0,0 C 50 % 77 % 0 % 1030,2 hPa 0,0 l/m 0,0 km/h (0 Bft) 0 min 0,0 km/h (0 Bft)
20.05.2010 04:28 16,9 C 8,4 C 0,0 UV-I 0,0 C 51 % 77 % 0 % 1030,2 hPa 0,0 l/m 0,0 km/h (0 Bft) 0 min 0,0 km/h (0 Bft)
20.05.2010 04:30 16,9 C 8,5 C 0,0 UV-I 0,0 C 50 % 77 % 0 % 1030,2 hPa 0,0 l/m 0,0 km/h (0 Bft) 0 min 0,0 km/h (0 Bft)
20.05.2010 04:32 16,9 C 8,5 C 0,0 UV-I 0,0 C 51 % 77 % 0 % 1030,1 hPa 0,0 l/m 0,0 km/h (0 Bft) 0 min 0,0 km/h (0 Bft)
20.05.2010 04:34 16,9 C 8,4 C 0,0 UV-I 0,0 C 51 % 77 % 0 % 1030,1 hPa 0,0 l/m 0,0 km/h (0 Bft) 0 min 0,0 km/h (0 Bft)
20.05.2010 04:36 16,9 C 8,4 C 0,0 UV-I 0,0 C 51 % 77 % 0 % 1030,1 hPa 0,0 l/m 0,0 km/h (0 Bft) 0 min 0,0 km/h (0 Bft)
20.05.2010 04:38 16,9 C 8,4 C 0,0 UV-I 0,0 C 51 % 77 % 0 % 1030,1 hPa 0,0 l/m 0,0 km/h (0 Bft) 0 min 0,0 km/h (0 Bft)
20.05.2010 04:40 16,9 C 8,3 C 0,0 UV-I 0,0 C 51 % 77 % 0 % 1030,1 hPa 0,0 l/m 0,0 km/h (0 Bft) 0 min 0,0 km/h (0 Bft)
20.05.2010 04:42 16,8 C 8,3 C 0,0 UV-I 0,0 C 51 % 77 % 0 % 1030,1 hPa 0,0 l/m 0,0 km/h (0 Bft) 0 min 0,0 km/h (0 Bft)
20.05.2010 04:44 16,8 C 8,3 C 0,0 UV-I 0,0 C 51 % 77 % 0 % 1030,1 hPa 0,0 l/m 0,0 km/h (0 Bft) 0 min 0,0 km/h (0 Bft)
20.05.2010 04:46 16,8 C 8,2 C 0,0 UV-I 0,0 C 51 % 77 % 0 % 1030,1 hPa 0,0 l/m 0,0 km/h (0 Bft) 0 min 0,0 km/h (0 Bft)
20.05.2010 04:48 16,8 C 8,3 C 0,0 UV-I 0,0 C 51 % 77 % 0 % 1030,1 hPa 0,0 l/m 0,0 km/h (0 Bft) 0 min 0,0 km/h (0 Bft)
20.05.2010 04:50 16,8 C 8,3 C 0,0 UV-I 0,0 C 51 % 77 % 0 % 1030,1 hPa 0,0 l/m 0,0 km/h (0 Bft) 0 min 0,0 km/h (0 Bft)
20.05.2010 04:52 16,8 C 8,3 C 0,0 UV-I 0,0 C 51 % 77 % 0 % 1030,2 hPa 0,0 l/m 0,0 km/h (0 Bft) 0 min 3,2 km/h (1 Bft)
20.05.2010 04:54 16,8 C 8,2 C 0,0 UV-I 0,0 C 51 % 77 % 0 % 1030,2 hPa 0,0 l/m 0,0 km/h (0 Bft) 0 min 0,0 km/h (0 Bft)
20.05.2010 04:56 16,8 C 8,1 C 0,0 UV-I 0,0 C 51 % 77 % 0 % 1030,2 hPa 0,0 l/m 0,0 km/h (0 Bft) 0 min 0,0 km/h (0 Bft)
20.05.2010 04:58 16,8 C 8,1 C 0,0 UV-I 0,0 C 51 % 77 % 0 % 1030,2 hPa 0,0 l/m 0,0 km/h (0 Bft) 0 min 0,0 km/h (0 Bft)
20.05.2010 05:00 16,8 C 8,1 C 0,0 UV-I 0,0 C 51 % 77 % 0 % 1030,2 hPa 0,0 l/m 0,0 km/h (0 Bft) 0 min 0,0 km/h (0 Bft)
20.05.2010 05:02 16,8 C 8,0 C 0,0 UV-I 0,0 C 51 % 77 % 0 % 1030,2 hPa 0,0 l/m 0,0 km/h (0 Bft) 0 min 0,0 km/h (0 Bft)
20.05.2010 05:04 16,8 C 8,0 C 0,0 UV-I 0,0 C 51 % 77 % 0 % 1030,2 hPa 0,0 l/m 0,0 km/h (0 Bft) 0 min 0,0 km/h (0 Bft)
20.05.2010 05:06 16,8 C 8,1 C 0,0 UV-I 0,0 C 51 % 77 % 0 % 1030,2 hPa 0,0 l/m 0,0 km/h (0 Bft) 0 min 0,0 km/h (0 Bft)
20.05.2010 05:08 16,8 C 8,0 C 0,0 UV-I 0,0 C 51 % 77 % 0 % 1030,2 hPa 0,0 l/m 0,0 km/h (0 Bft) 0 min 0,0 km/h (0 Bft)
20.05.2010 05:10 16,8 C 8,0 C 0,0 UV-I 0,0 C 51 % 77 % 0 % 1030,2 hPa 0,0 l/m 0,0 km/h (0 Bft) 0 min 0,0 km/h (0 Bft)
20.05.2010 05:12 16,7 C 7,9 C 0,0 UV-I 0,0 C 51 % 78 % 0 % 1030,1 hPa 0,0 l/m 0,0 km/h (0 Bft) 0 min 0,0 km/h (0 Bft)
20.05.2010 05:14 16,7 C 7,9 C 0,0 UV-I 0,0 C 51 % 78 % 0 % 1030,1 hPa 0,0 l/m 0,0 km/h (0 Bft) 0 min 0,0 km/h (0 Bft)
20.05.2010 05:16 16,7 C 7,9 C 0,0 UV-I 0,0 C 51 % 78 % 0 % 1030,1 hPa 0,0 l/m 0,0 km/h (0 Bft) 0 min 0,0 km/h (0 Bft)
20.05.2010 05:18 16,7 C 7,9 C 0,0 UV-I 0,0 C 51 % 78 % 0 % 1030,1 hPa 0,0 l/m 0,0 km/h (0 Bft) 0 min 0,0 km/h (0 Bft)
20.05.2010 05:20 16,7 C 7,9 C 0,0 UV-I 0,0 C 51 % 78 % 0 % 1030,1 hPa 0,0 l/m 0,0 km/h (0 Bft) 0 min 0,0 km/h (0 Bft)
20.05.2010 05:22 16,7 C 7,9 C 0,0 UV-I 0,0 C 51 % 78 % 0 % 1030,1 hPa 0,0 l/m 0,0 km/h (0 Bft) 0 min 0,0 km/h (0 Bft)
20.05.2010 05:24 16,7 C 7,9 C 0,0 UV-I 0,0 C 51 % 78 % 0 % 1030,1 hPa 0,0 l/m 0,0 km/h (0 Bft) 0 min 0,0 km/h (0 Bft)
20.05.2010 05:26 16,7 C 8,0 C 0,0 UV-I 0,0 C 51 % 79 % 0 % 1030,1 hPa 0,0 l/m 0,0 km/h (0 Bft) 0 min 0,0 km/h (0 Bft)
20.05.2010 05:28 16,7 C 8,1 C 0,0 UV-I 0,0 C 51 % 79 % 0 % 1030,1 hPa 0,0 l/m 0,0 km/h (0 Bft) 0 min 0,0 km/h (0 Bft)
20.05.2010 05:30 16,7 C 8,0 C 0,0 UV-I 0,0 C 51 % 79 % 0 % 1030,1 hPa 0,0 l/m 0,0 km/h (0 Bft) 0 min 0,0 km/h (0 Bft)
20.05.2010 05:32 16,7 C 8,0 C 0,0 UV-I 0,0 C 51 % 79 % 0 % 1030,3 hPa 0,0 l/m 0,0 km/h (0 Bft) 0 min 0,0 km/h (0 Bft)
20.05.2010 05:34 16,7 C 8,1 C 0,0 UV-I 0,0 C 51 % 79 % 0 % 1030,3 hPa 0,0 l/m 0,0 km/h (0 Bft) 0 min 0,0 km/h (0 Bft)
20.05.2010 05:36 16,6 C 8,1 C 0,0 UV-I 0,0 C 51 % 79 % 0 % 1030,3 hPa 0,0 l/m 0,0 km/h (0 Bft) 0 min 0,0 km/h (0 Bft)
20.05.2010 05:38 16,6 C 8,1 C 0,0 UV-I 0,0 C 51 % 79 % 0 % 1030,3 hPa 0,0 l/m 0,0 km/h (0 Bft) 0 min 0,0 km/h (0 Bft)
20.05.2010 05:40 16,6 C 8,1 C 0,0 UV-I 0,0 C 51 % 79 % 0 % 1030,3 hPa 0,0 l/m 0,0 km/h (0 Bft) 0 min 0,0 km/h (0 Bft)
20.05.2010 05:42 16,6 C 8,1 C 0,0 UV-I 0,0 C 51 % 79 % 0 % 1030,3 hPa 0,0 l/m 0,4 km/h (0 Bft) 0 min 4,5 km/h (1 Bft)
20.05.2010 05:44 16,6 C 8,3 C 0,0 UV-I 0,0 C 51 % 79 % 0 % 1030,3 hPa 0,0 l/m 0,4 km/h (0 Bft) 0 min 0,0 km/h (0 Bft)
20.05.2010 05:46 16,6 C 8,3 C 0,0 UV-I 0,0 C 51 % 79 % 0 % 1030,3 hPa 0,0 l/m 0,4 km/h (0 Bft) 0 min 0,0 km/h (0 Bft)
20.05.2010 05:48 16,6 C 8,3 C 0,0 UV-I 0,0 C 51 % 79 % 0 % 1030,3 hPa 0,0 l/m 0,4 km/h (0 Bft) 0 min 0,0 km/h (0 Bft)
20.05.2010 05:50 16,6 C 8,3 C 0,0 UV-I 0,0 C 51 % 79 % 0 % 1030,3 hPa 0,0 l/m 0,4 km/h (0 Bft) 0 min 0,0 km/h (0 Bft)
20.05.2010 05:52 16,6 C 8,4 C 0,0 UV-I 0,0 C 51 % 79 % 0 % 1030,3 hPa 0,0 l/m 0,4 km/h (0 Bft) 0 min 0,0 km/h (0 Bft)
20.05.2010 05:54 16,6 C 8,4 C 0,0 UV-I 0,0 C 51 % 79 % 0 % 1030,3 hPa 0,0 l/m 0,0 km/h (0 Bft) 0 min 0,0 km/h (0 Bft)
20.05.2010 05:56 16,6 C 8,4 C 0,0 UV-I 0,0 C 51 % 79 % 0 % 1030,3 hPa 0,0 l/m 0,4 km/h (0 Bft) 0 min 5,5 km/h (1 Bft)
20.05.2010 05:58 16,6 C 8,4 C 0,0 UV-I 0,0 C 51 % 79 % 0 % 1030,3 hPa 0,0 l/m 0,4 km/h (0 Bft) 0 min 0,0 km/h (0 Bft)
20.05.2010 06:00 16,6 C 8,4 C 0,0 UV-I 0,0 C 51 % 79 % 0 % 1030,3 hPa 0,0 l/m 0,4 km/h (0 Bft) 0 min 0,0 km/h (0 Bft)
20.05.2010 06:02 16,6 C 8,4 C 0,0 UV-I 0,0 C 51 % 79 % 0 % 1030,3 hPa 0,0 l/m 0,4 km/h (0 Bft) 0 min 0,0 km/h (0 Bft)
20.05.2010 06:04 16,6 C 8,4 C 0,0 UV-I 0,0 C 51 % 79 % 0 % 1030,3 hPa 0,0 l/m 0,4 km/h (0 Bft) 0 min 0,0 km/h (0 Bft)
20.05.2010 06:06 16,6 C 8,4 C 0,0 UV-I 0,0 C 51 % 79 % 0 % 1030,3 hPa 0,0 l/m 0,4 km/h (0 Bft) 0 min 0,0 km/h (0 Bft)
20.05.2010 06:08 16,6 C 8,4 C 0,0 UV-I 0,0 C 51 % 79 % 0 % 1030,3 hPa 0,0 l/m 0,0 km/h (0 Bft) 0 min 0,0 km/h (0 Bft)
20.05.2010 06:10 16,6 C 8,4 C 0,0 UV-I 0,0 C 51 % 79 % 0 % 1030,3 hPa 0,0 l/m 0,0 km/h (0 Bft) 0 min 0,0 km/h (0 Bft)
20.05.2010 06:12 16,6 C 8,3 C 0,0 UV-I 0,0 C 51 % 79 % 0 % 1030,2 hPa 0,0 l/m 0,0 km/h (0 Bft) 0 min 0,0 km/h (0 Bft)
20.05.2010 06:14 16,6 C 8,4 C 0,0 UV-I 0,0 C 51 % 79 % 0 % 1030,2 hPa 0,0 l/m 0,0 km/h (0 Bft) 0 min 0,0 km/h (0 Bft)
20.05.2010 06:16 16,6 C 8,3 C 0,0 UV-I 0,0 C 51 % 79 % 0 % 1030,2 hPa 0,0 l/m 0,0 km/h (0 Bft) 0 min 0,0 km/h (0 Bft)
20.05.2010 06:18 16,6 C 8,3 C 0,0 UV-I 0,0 C 51 % 79 % 0 % 1030,2 hPa 0,0 l/m 0,0 km/h (0 Bft) 0 min 0,0 km/h (0 Bft)
20.05.2010 06:20 16,6 C 8,4 C 0,0 UV-I 0,0 C 51 % 79 % 0 % 1030,2 hPa 0,0 l/m 0,0 km/h (0 Bft) 0 min 0,0 km/h (0 Bft)
20.05.2010 06:22 16,6 C 8,3 C 0,0 UV-I 0,0 C 51 % 79 % 0 % 1030,2 hPa 0,0 l/m 0,0 km/h (0 Bft) 0 min 0,0 km/h (0 Bft)
20.05.2010 06:24 16,6 C 8,4 C 0,0 UV-I 0,0 C 51 % 79 % 0 % 1030,2 hPa 0,0 l/m 0,0 km/h (0 Bft) 0 min 0,0 km/h (0 Bft)
20.05.2010 06:26 16,6 C 8,3 C 0,0 UV-I 0,0 C 51 % 79 % 0 % 1030,2 hPa 0,0 l/m 0,0 km/h (0 Bft) 0 min 0,0 km/h (0 Bft)
20.05.2010 06:28 16,6 C 8,3 C 0,0 UV-I 0,0 C 51 % 79 % 0 % 1030,2 hPa 0,0 l/m 0,0 km/h (0 Bft) 0 min 0,0 km/h (0 Bft)
20.05.2010 06:30 16,6 C 8,3 C 0,0 UV-I 0,0 C 51 % 79 % 0 % 1030,2 hPa 0,0 l/m 0,4 km/h (0 Bft) 0 min 7,4 km/h (2 Bft)
20.05.2010 06:32 16,6 C 8,3 C 0,2 UV-I 0,0 C 51 % 79 % 0 % 1030,4 hPa 0,0 l/m 0,8 km/h (0 Bft) 0 min 0,0 km/h (0 Bft)
20.05.2010 06:34 16,6 C 8,3 C 0,2 UV-I 0,0 C 51 % 79 % 0 % 1030,4 hPa 0,0 l/m 0,8 km/h (0 Bft) 0 min 0,0 km/h (0 Bft)
20.05.2010 06:36 16,6 C 8,3 C 0,3 UV-I 0,0 C 51 % 79 % 0 % 1030,4 hPa 0,0 l/m 1,2 km/h (1 Bft) 0 min 6,4 km/h (2 Bft)
20.05.2010 06:38 16,6 C 8,4 C 0,3 UV-I 0,0 C 51 % 79 % 0 % 1030,4 hPa 0,0 l/m 1,6 km/h (1 Bft) 0 min 0,0 km/h (0 Bft)
20.05.2010 06:40 16,6 C 8,4 C 0,3 UV-I 0,0 C 51 % 80 % 0 % 1030,4 hPa 0,0 l/m 1,6 km/h (1 Bft) 0 min 0,0 km/h (0 Bft)
20.05.2010 06:42 16,6 C 8,4 C 0,0 UV-I 0,0 C 51 % 80 % 0 % 1030,4 hPa 0,0 l/m 1,2 km/h (1 Bft) 0 min 0,0 km/h (0 Bft)
20.05.2010 06:44 16,6 C 8,4 C 0,0 UV-I 0,0 C 51 % 80 % 0 % 1030,4 hPa 0,0 l/m 1,2 km/h (1 Bft) 0 min 0,0 km/h (0 Bft)
20.05.2010 06:46 16,6 C 8,5 C 0,4 UV-I 0,0 C 51 % 80 % 0 % 1030,4 hPa 0,0 l/m 1,6 km/h (1 Bft) 0 min 4,5 km/h (1 Bft)
20.05.2010 06:48 16,6 C 8,5 C 0,4 UV-I 0,0 C 51 % 80 % 0 % 1030,4 hPa 0,0 l/m 1,6 km/h (1 Bft) 0 min 4,5 km/h (1 Bft)
20.05.2010 06:50 16,6 C 8,4 C 0,4 UV-I 0,0 C 51 % 80 % 0 % 1030,4 hPa 0,0 l/m 1,6 km/h (1 Bft) 0 min 0,0 km/h (0 Bft)
20.05.2010 06:52 16,6 C 8,4 C 0,4 UV-I 0,0 C 51 % 80 % 0 % 1030,7 hPa 0,0 l/m 1,6 km/h (1 Bft) 0 min 0,0 km/h (0 Bft)
20.05.2010 06:54 16,6 C 8,4 C 0,4 UV-I 0,0 C 51 % 80 % 0 % 1030,7 hPa 0,0 l/m 1,6 km/h (1 Bft) 0 min 0,0 km/h (0 Bft)
20.05.2010 06:56 16,6 C 8,4 C 0,5 UV-I 0,0 C 51 % 79 % 0 % 1030,7 hPa 0,0 l/m 1,6 km/h (1 Bft) 0 min 0,0 km/h (0 Bft)
20.05.2010 06:58 16,6 C 8,4 C 0,5 UV-I 0,0 C 51 % 80 % 0 % 1030,7 hPa 0,0 l/m 0,8 km/h (0 Bft) 0 min 3,2 km/h (1 Bft)
20.05.2010 07:00 16,6 C 8,4 C 0,5 UV-I 0,0 C 51 % 80 % 0 % 1030,7 hPa 0,0 l/m 0,4 km/h (0 Bft) 0 min 0,0 km/h (0 Bft)
20.05.2010 07:02 16,6 C 8,4 C 0,5 UV-I 0,0 C 51 % 80 % 0 % 1030,7 hPa 0,0 l/m 1,2 km/h (1 Bft) 0 min 8,0 km/h (2 Bft)
20.05.2010 07:04 16,6 C 8,4 C 0,5 UV-I 0,0 C 51 % 80 % 0 % 1030,7 hPa 0,0 l/m 0,8 km/h (0 Bft) 0 min 0,0 km/h (0 Bft)
20.05.2010 07:06 16,6 C 8,5 C 0,5 UV-I 0,0 C 51 % 80 % 0 % 1030,7 hPa 0,0 l/m 0,8 km/h (0 Bft) 0 min 0,0 km/h (0 Bft)
20.05.2010 07:08 16,6 C 8,5 C 0,5 UV-I 0,0 C 51 % 80 % 0 % 1030,7 hPa 0,0 l/m 0,8 km/h (0 Bft) 0 min 0,0 km/h (0 Bft)
20.05.2010 07:10 16,6 C 8,5 C 0,5 UV-I 0,0 C 51 % 79 % 0 % 1030,7 hPa 0,0 l/m 1,2 km/h (1 Bft) 0 min 4,5 km/h (1 Bft)
20.05.2010 07:12 16,6 C 8,5 C 0,5 UV-I 0,0 C 51 % 79 % 0 % 1030,4 hPa 0,0 l/m 1,2 km/h (1 Bft) 0 min 0,0 km/h (0 Bft)
20.05.2010 07:14 16,6 C 8,5 C 0,5 UV-I 0,0 C 50 % 79 % 0 % 1030,4 hPa 0,0 l/m 0,4 km/h (0 Bft) 0 min 0,0 km/h (0 Bft)
20.05.2010 07:16 16,6 C 8,6 C 0,6 UV-I 0,0 C 50 % 80 % 0 % 1030,4 hPa 0,0 l/m 0,4 km/h (0 Bft) 0 min 0,0 km/h (0 Bft)
20.05.2010 07:18 16,6 C 8,7 C 0,6 UV-I 0,0 C 50 % 80 % 0 % 1030,4 hPa 0,0 l/m 0,8 km/h (0 Bft) 0 min 0,0 km/h (0 Bft)
20.05.2010 07:20 16,6 C 8,7 C 0,6 UV-I 0,0 C 50 % 80 % 0 % 1030,4 hPa 0,0 l/m 0,4 km/h (0 Bft) 0 min 0,0 km/h (0 Bft)
20.05.2010 07:22 16,6 C 8,7 C 0,5 UV-I 0,0 C 50 % 80 % 0 % 1030,4 hPa 0,0 l/m 0,0 km/h (0 Bft) 0 min 0,0 km/h (0 Bft)
20.05.2010 07:24 16,6 C 8,7 C 0,5 UV-I 0,0 C 50 % 80 % 0 % 1030,4 hPa 0,0 l/m 0,0 km/h (0 Bft) 0 min 0,0 km/h (0 Bft)
20.05.2010 07:26 16,6 C 8,7 C 0,5 UV-I 0,2 C 50 % 80 % 6 % 1030,4 hPa 0,0 l/m 0,4 km/h (0 Bft) 0 min 0,0 km/h (0 Bft)
20.05.2010 07:30 16,6 C 8,7 C 0,5 UV-I 0,4 C 50 % 79 % 11 % 1030,4 hPa 0,0 l/m 0,0 km/h (0 Bft) 0 min 0,0 km/h (0 Bft)
20.05.2010 07:32 16,6 C 8,8 C 0,6 UV-I 0,4 C 50 % 79 % 11 % 1030,5 hPa 0,0 l/m 0,0 km/h (0 Bft) 0 min 0,0 km/h (0 Bft)
20.05.2010 07:34 16,6 C 8,8 C 0,6 UV-I 0,5 C 50 % 79 % 14 % 1030,5 hPa 0,0 l/m 0,0 km/h (0 Bft) 0 min 0,0 km/h (0 Bft)
20.05.2010 07:36 16,6 C 8,9 C 0,6 UV-I 0,5 C 51 % 79 % 14 % 1030,5 hPa 0,0 l/m 0,4 km/h (0 Bft) 0 min 3,2 km/h (1 Bft)
20.05.2010 07:38 16,6 C 9,0 C 0,6 UV-I 0,5 C 51 % 79 % 14 % 1030,5 hPa 0,0 l/m 0,4 km/h (0 Bft) 0 min 0,0 km/h (0 Bft)
20.05.2010 07:40 16,6 C 9,1 C 0,6 UV-I 0,5 C 51 % 79 % 14 % 1030,5 hPa 0,0 l/m 0,4 km/h (0 Bft) 0 min 0,0 km/h (0 Bft)
20.05.2010 07:42 16,6 C 9,1 C 0,7 UV-I 0,7 C 51 % 79 % 20 % 1030,5 hPa 0,0 l/m 1,2 km/h (1 Bft) 0 min 5,5 km/h (1 Bft)
20.05.2010 07:44 16,6 C 9,1 C 0,7 UV-I 0,7 C 51 % 79 % 20 % 1030,5 hPa 0,0 l/m 1,2 km/h (1 Bft) 0 min 0,0 km/h (0 Bft)
20.05.2010 07:46 16,6 C 9,2 C 1,0 UV-I 0,7 C 51 % 79 % 20 % 1030,5 hPa 0,0 l/m 1,6 km/h (1 Bft) 0 min 3,2 km/h (1 Bft)
20.05.2010 07:48 16,6 C 9,2 C 1,0 UV-I 0,8 C 51 % 79 % 23 % 1030,5 hPa 0,0 l/m 1,6 km/h (1 Bft) 0 min 6,1 km/h (2 Bft)
20.05.2010 07:50 16,6 C 9,3 C 1,0 UV-I 0,8 C 51 % 78 % 23 % 1030,5 hPa 0,0 l/m 2,0 km/h (1 Bft) 0 min 0,0 km/h (0 Bft)
20.05.2010 07:52 16,6 C 9,5 C 1,1 UV-I 0,7 C 51 % 78 % 20 % 1030,8 hPa 0,0 l/m 2,4 km/h (1 Bft) 0 min 4,8 km/h (1 Bft)
20.05.2010 07:54 16,6 C 9,5 C 1,1 UV-I 0,8 C 51 % 78 % 23 % 1030,8 hPa 0,0 l/m 2,4 km/h (1 Bft) 0 min 7,1 km/h (2 Bft)
20.05.2010 07:56 16,6 C 9,5 C 1,3 UV-I 0,9 C 51 % 78 % 26 % 1030,8 hPa 0,0 l/m 3,6 km/h (1 Bft) 0 min 10,0 km/h (2 Bft)
20.05.2010 07:58 16,6 C 9,5 C 1,3 UV-I 0,9 C 51 % 78 % 26 % 1030,8 hPa 0,0 l/m 4,4 km/h (1 Bft) 0 min 5,1 km/h (1 Bft)
20.05.2010 08:00 16,6 C 9,6 C 1,3 UV-I 0,9 C 51 % 78 % 26 % 1030,8 hPa 0,0 l/m 4,8 km/h (1 Bft) 0 min 8,4 km/h (2 Bft)
20.05.2010 08:02 16,6 C 9,6 C 1,8 UV-I 0,9 C 51 % 77 % 26 % 1030,8 hPa 0,0 l/m 5,6 km/h (1 Bft) 0 min 8,0 km/h (2 Bft)
20.05.2010 08:04 16,7 C 9,7 C 1,8 UV-I 1,0 C 51 % 77 % 29 % 1030,8 hPa 0,0 l/m 5,6 km/h (1 Bft) 0 min 0,0 km/h (0 Bft)
20.05.2010 08:08 16,7 C 9,7 C 1,8 UV-I 1,0 C 51 % 77 % 29 % 1030,8 hPa 0,0 l/m 6,8 km/h (2 Bft) 0 min 11,6 km/h (2 Bft)
20.05.2010 08:12 16,7 C 9,9 C 1,8 UV-I 1,0 C 51 % 77 % 29 % 1030,9 hPa 0,0 l/m 5,6 km/h (1 Bft) 0 min 6,1 km/h (2 Bft)
20.05.2010 08:14 16,7 C 10,0 C 1,8 UV-I 0,9 C 51 % 77 % 26 % 1030,9 hPa 0,0 l/m 5,2 km/h (1 Bft) 0 min 3,5 km/h (1 Bft)
20.05.2010 08:18 16,7 C 10,1 C 2,1 UV-I 0,8 C 51 % 76 % 23 % 1030,9 hPa 0,0 l/m 5,6 km/h (1 Bft) 0 min 15,4 km/h (3 Bft)
20.05.2010 08:20 16,7 C 10,1 C 2,1 UV-I 0,8 C 51 % 76 % 23 % 1030,9 hPa 0,0 l/m 6,8 km/h (2 Bft) 0 min 7,1 km/h (2 Bft)
20.05.2010 08:22 16,7 C 10,1 C 2,3 UV-I 0,7 C 51 % 76 % 20 % 1030,9 hPa 0,0 l/m 7,2 km/h (2 Bft) 0 min 5,1 km/h (1 Bft)
20.05.2010 08:24 16,8 C 10,1 C 2,3 UV-I 0,7 C 51 % 76 % 20 % 1030,9 hPa 0,0 l/m 7,2 km/h (2 Bft) 0 min 17,7 km/h (3 Bft)
20.05.2010 08:26 16,7 C 10,2 C 2,7 UV-I 0,6 C 51 % 76 % 17 % 1030,9 hPa 0,0 l/m 7,6 km/h (2 Bft) 0 min 5,5 km/h (1 Bft)
20.05.2010 08:28 16,8 C 10,3 C 2,7 UV-I 0,5 C 51 % 76 % 14 % 1030,9 hPa 0,0 l/m 8,4 km/h (2 Bft) 0 min 18,0 km/h (3 Bft)
20.05.2010 08:30 16,8 C 10,3 C 2,7 UV-I 0,6 C 51 % 76 % 17 % 1030,9 hPa 0,0 l/m 7,6 km/h (2 Bft) 0 min 6,8 km/h (2 Bft)
20.05.2010 08:32 16,8 C 10,3 C 3,0 UV-I 0,6 C 51 % 76 % 17 % 1030,9 hPa 0,0 l/m 7,6 km/h (2 Bft) 0 min 9,3 km/h (2 Bft)
20.05.2010 08:34 16,8 C 10,3 C 3,0 UV-I 0,8 C 51 % 76 % 23 % 1030,9 hPa 0,0 l/m 8,4 km/h (2 Bft) 0 min 9,0 km/h (2 Bft)
20.05.2010 08:36 16,8 C 10,3 C 3,1 UV-I 1,0 C 51 % 76 % 29 % 1030,9 hPa 0,0 l/m 7,6 km/h (2 Bft) 0 min 6,4 km/h (2 Bft)
20.05.2010 08:38 16,8 C 10,4 C 3,1 UV-I 1,1 C 51 % 76 % 31 % 1030,9 hPa 0,0 l/m 7,6 km/h (2 Bft) 0 min 8,0 km/h (2 Bft)
20.05.2010 08:40 16,8 C 10,4 C 3,1 UV-I 2,1 C 51 % 75 % 60 % 1030,9 hPa 0,0 l/m 6,8 km/h (2 Bft) 0 min 8,4 km/h (2 Bft)
20.05.2010 08:42 16,8 C 10,5 C 3,4 UV-I 2,7 C 51 % 76 % 77 % 1030,9 hPa 0,0 l/m 7,2 km/h (2 Bft) 0 min 7,7 km/h (2 Bft)
20.05.2010 08:44 16,8 C 10,7 C 3,4 UV-I 3,1 C 51 % 75 % 89 % 1030,9 hPa 0,0 l/m 6,8 km/h (2 Bft) 2 min 9,3 km/h (2 Bft)
20.05.2010 08:46 16,8 C 10,7 C 4,0 UV-I 4,0 C 51 % 75 % 100 % 1030,9 hPa 0,0 l/m 7,2 km/h (2 Bft) 2 min 8,0 km/h (2 Bft)
20.05.2010 08:50 16,8 C 10,8 C 4,0 UV-I 4,5 C 51 % 75 % 100 % 1030,9 hPa 0,0 l/m 7,2 km/h (2 Bft) 2 min 7,4 km/h (2 Bft)
20.05.2010 08:52 16,8 C 10,9 C 4,3 UV-I 5,1 C 51 % 75 % 100 % 1030,8 hPa 0,0 l/m 7,6 km/h (2 Bft) 2 min 12,9 km/h (3 Bft)
20.05.2010 08:54 16,8 C 11,1 C 4,3 UV-I 5,1 C 51 % 75 % 100 % 1030,8 hPa 0,0 l/m 7,6 km/h (2 Bft) 2 min 0,0 km/h (0 Bft)
20.05.2010 08:56 16,8 C 11,1 C 4,6 UV-I 5,5 C 51 % 75 % 100 % 1030,8 hPa 0,0 l/m 7,2 km/h (2 Bft) 2 min 6,8 km/h (2 Bft)
20.05.2010 08:58 16,8 C 11,2 C 4,6 UV-I 5,8 C 51 % 74 % 100 % 1030,8 hPa 0,0 l/m 7,6 km/h (2 Bft) 2 min 13,5 km/h (3 Bft)
20.05.2010 09:00 16,8 C 11,3 C 4,6 UV-I 5,9 C 51 % 74 % 100 % 1030,8 hPa 0,0 l/m 7,2 km/h (2 Bft) 2 min 8,4 km/h (2 Bft)
20.05.2010 09:02 16,8 C 11,5 C 4,7 UV-I 6,0 C 51 % 75 % 100 % 1030,8 hPa 0,0 l/m 8,0 km/h (2 Bft) 2 min 8,4 km/h (2 Bft)
20.05.2010 09:04 16,8 C 11,6 C 4,7 UV-I 6,2 C 51 % 74 % 100 % 1030,8 hPa 0,0 l/m 7,2 km/h (2 Bft) 2 min 21,6 km/h (4 Bft)
20.05.2010 09:06 16,8 C 11,6 C 4,7 UV-I 6,3 C 51 % 73 % 100 % 1030,8 hPa 0,0 l/m 8,4 km/h (2 Bft) 2 min 18,0 km/h (3 Bft)
20.05.2010 09:08 16,8 C 11,7 C 4,7 UV-I 5,8 C 51 % 73 % 100 % 1030,8 hPa 0,0 l/m 9,6 km/h (2 Bft) 2 min 10,9 km/h (2 Bft)
20.05.2010 09:12 16,8 C 11,8 C 5,0 UV-I 4,8 C 51 % 72 % 100 % 1031,1 hPa 0,0 l/m 11,6 km/h (2 Bft) 2 min 21,6 km/h (4 Bft)
20.05.2010 09:14 16,8 C 11,9 C 5,0 UV-I 4,3 C 51 % 72 % 100 % 1031,1 hPa 0,0 l/m 12,0 km/h (2 Bft) 2 min 7,7 km/h (2 Bft)
20.05.2010 09:16 16,8 C 11,9 C 6,7 UV-I 4,4 C 51 % 72 % 100 % 1031,1 hPa 0,0 l/m 12,4 km/h (3 Bft) 2 min 15,4 km/h (3 Bft)
20.05.2010 09:18 16,8 C 12,0 C 6,7 UV-I 4,6 C 51 % 72 % 100 % 1031,1 hPa 0,0 l/m 11,2 km/h (2 Bft) 2 min 7,4 km/h (2 Bft)
20.05.2010 09:20 16,8 C 12,0 C 6,7 UV-I 5,2 C 51 % 72 % 100 % 1031,1 hPa 0,0 l/m 10,4 km/h (2 Bft) 2 min 10,0 km/h (2 Bft)
20.05.2010 09:22 16,8 C 12,2 C 8,5 UV-I 5,4 C 51 % 72 % 100 % 1031,1 hPa 0,0 l/m 9,2 km/h (2 Bft) 2 min 4,8 km/h (1 Bft)
20.05.2010 09:24 16,8 C 12,3 C 8,5 UV-I 5,7 C 51 % 72 % 100 % 1031,1 hPa 0,0 l/m 8,4 km/h (2 Bft) 2 min 8,0 km/h (2 Bft)
20.05.2010 09:26 16,8 C 12,4 C 9,2 UV-I 5,9 C 51 % 72 % 100 % 1031,1 hPa 0,0 l/m 8,4 km/h (2 Bft) 2 min 7,7 km/h (2 Bft)
20.05.2010 09:28 16,8 C 12,4 C 9,2 UV-I 6,1 C 51 % 71 % 100 % 1031,1 hPa 0,0 l/m 8,0 km/h (2 Bft) 2 min 8,7 km/h (2 Bft)
20.05.2010 09:30 16,8 C 12,5 C 9,2 UV-I 6,2 C 51 % 71 % 100 % 1031,1 hPa 0,0 l/m 7,6 km/h (2 Bft) 2 min 0,0 km/h (0 Bft)
20.05.2010 09:32 16,9 C 12,7 C 9,2 UV-I 6,4 C 52 % 71 % 100 % 1031,2 hPa 0,0 l/m 7,6 km/h (2 Bft) 2 min 7,1 km/h (2 Bft)
20.05.2010 09:34 16,8 C 12,8 C 9,2 UV-I 6,4 C 52 % 70 % 100 % 1031,2 hPa 0,0 l/m 7,6 km/h (2 Bft) 2 min 11,3 km/h (2 Bft)
20.05.2010 09:36 16,9 C 12,9 C 10,4 UV-I 6,4 C 52 % 70 % 100 % 1031,2 hPa 0,0 l/m 7,2 km/h (2 Bft) 2 min 16,4 km/h (3 Bft)
20.05.2010 09:38 16,9 C 13,0 C 10,4 UV-I 6,5 C 52 % 70 % 100 % 1031,2 hPa 0,0 l/m 6,8 km/h (2 Bft) 2 min 15,1 km/h (3 Bft)
20.05.2010 09:40 16,9 C 13,1 C 10,4 UV-I 6,4 C 52 % 69 % 100 % 1031,2 hPa 0,0 l/m 7,2 km/h (2 Bft) 2 min 11,9 km/h (2 Bft)
20.05.2010 09:42 16,9 C 13,1 C 11,2 UV-I 6,5 C 52 % 69 % 100 % 1031,2 hPa 0,0 l/m 8,8 km/h (2 Bft) 2 min 15,1 km/h (3 Bft)
20.05.2010 09:44 16,9 C 13,2 C 11,2 UV-I 6,4 C 52 % 69 % 100 % 1031,2 hPa 0,0 l/m 9,2 km/h (2 Bft) 2 min 13,5 km/h (3 Bft)
20.05.2010 09:46 16,9 C 13,3 C 11,9 UV-I 6,3 C 52 % 68 % 100 % 1031,2 hPa 0,0 l/m 9,2 km/h (2 Bft) 2 min 4,5 km/h (1 Bft)
20.05.2010 09:50 16,9 C 13,4 C 11,9 UV-I 6,3 C 52 % 69 % 100 % 1031,2 hPa 0,0 l/m 9,6 km/h (2 Bft) 2 min 7,1 km/h (2 Bft)
20.05.2010 09:52 16,9 C 13,5 C 11,9 UV-I 6,3 C 52 % 67 % 100 % 1031,2 hPa 0,0 l/m 10,4 km/h (2 Bft) 2 min 8,7 km/h (2 Bft)
20.05.2010 09:54 16,9 C 13,5 C 11,9 UV-I 6,4 C 52 % 68 % 100 % 1031,2 hPa 0,0 l/m 9,2 km/h (2 Bft) 2 min 7,4 km/h (2 Bft)
20.05.2010 09:56 16,9 C 13,6 C 12,8 UV-I 6,3 C 52 % 67 % 100 % 1031,2 hPa 0,0 l/m 9,6 km/h (2 Bft) 2 min 14,2 km/h (3 Bft)
20.05.2010 09:58 16,9 C 13,6 C 12,8 UV-I 6,4 C 52 % 67 % 100 % 1031,2 hPa 0,0 l/m 10,0 km/h (2 Bft) 2 min 5,1 km/h (1 Bft)
20.05.2010 10:00 16,9 C 13,6 C 12,8 UV-I 6,4 C 52 % 67 % 100 % 1031,2 hPa 0,0 l/m 10,8 km/h (2 Bft) 2 min 13,2 km/h (3 Bft)
20.05.2010 10:02 17,0 C 13,7 C 12,7 UV-I 6,3 C 52 % 67 % 100 % 1031,2 hPa 0,0 l/m 10,4 km/h (2 Bft) 2 min 11,3 km/h (2 Bft)
20.05.2010 10:04 17,0 C 13,9 C 12,7 UV-I 6,1 C 52 % 67 % 100 % 1031,2 hPa 0,0 l/m 11,6 km/h (2 Bft) 2 min 20,9 km/h (4 Bft)
20.05.2010 10:08 17,0 C 14,0 C 12,7 UV-I 6,0 C 52 % 67 % 100 % 1031,2 hPa 0,0 l/m 10,8 km/h (2 Bft) 2 min 11,6 km/h (2 Bft)
20.05.2010 10:10 17,0 C 14,1 C 12,7 UV-I 6,1 C 52 % 67 % 100 % 1031,2 hPa 0,0 l/m 9,6 km/h (2 Bft) 2 min 3,9 km/h (1 Bft)
20.05.2010 10:12 17,0 C 14,3 C 12,9 UV-I 6,2 C 52 % 67 % 100 % 1031,3 hPa 0,0 l/m 8,4 km/h (2 Bft) 2 min 0,0 km/h (0 Bft)
20.05.2010 10:14 17,0 C 14,4 C 12,9 UV-I 6,6 C 52 % 66 % 100 % 1031,3 hPa 0,0 l/m 8,4 km/h (2 Bft) 2 min 22,2 km/h (4 Bft)
20.05.2010 10:18 17,0 C 14,4 C 12,8 UV-I 6,5 C 52 % 65 % 100 % 1031,3 hPa 0,0 l/m 8,4 km/h (2 Bft) 2 min 12,9 km/h (3 Bft)
20.05.2010 10:22 17,0 C 14,6 C 12,9 UV-I 6,2 C 52 % 65 % 100 % 1031,3 hPa 0,0 l/m 10,8 km/h (2 Bft) 2 min 18,0 km/h (3 Bft)
20.05.2010 10:24 17,0 C 14,6 C 12,9 UV-I 6,2 C 52 % 64 % 100 % 1031,3 hPa 0,0 l/m 12,0 km/h (2 Bft) 2 min 13,2 km/h (3 Bft)
20.05.2010 10:26 17,0 C 14,6 C 12,2 UV-I 6,1 C 52 % 64 % 100 % 1031,3 hPa 0,0 l/m 11,6 km/h (2 Bft) 2 min 13,5 km/h (3 Bft)
20.05.2010 10:30 17,0 C 14,8 C 12,2 UV-I 6,0 C 52 % 65 % 100 % 1031,3 hPa 0,0 l/m 10,8 km/h (2 Bft) 2 min 5,8 km/h (2 Bft)
20.05.2010 10:32 17,1 C 15,0 C 12,4 UV-I 6,0 C 52 % 65 % 100 % 1031,5 hPa 0,0 l/m 10,8 km/h (2 Bft) 2 min 10,0 km/h (2 Bft)
20.05.2010 10:34 17,1 C 15,1 C 12,4 UV-I 6,0 C 52 % 64 % 100 % 1031,5 hPa 0,0 l/m 10,0 km/h (2 Bft) 2 min 8,0 km/h (2 Bft)
20.05.2010 10:36 17,1 C 15,3 C 11,9 UV-I 6,0 C 52 % 64 % 100 % 1031,5 hPa 0,0 l/m 9,6 km/h (2 Bft) 2 min 21,9 km/h (4 Bft)
20.05.2010 10:38 17,1 C 15,3 C 11,9 UV-I 6,1 C 52 % 63 % 100 % 1031,5 hPa 0,0 l/m 10,4 km/h (2 Bft) 2 min 16,1 km/h (3 Bft)
20.05.2010 10:42 17,1 C 15,5 C 11,6 UV-I 5,8 C 52 % 62 % 100 % 1031,5 hPa 0,0 l/m 14,1 km/h (3 Bft) 2 min 29,3 km/h (5 Bft)
20.05.2010 10:44 17,1 C 15,5 C 11,6 UV-I 5,5 C 52 % 60 % 100 % 1031,5 hPa 0,0 l/m 15,7 km/h (3 Bft) 2 min 7,7 km/h (2 Bft)
20.05.2010 10:48 17,2 C 15,7 C 12,0 UV-I 5,1 C 52 % 61 % 100 % 1031,5 hPa 0,0 l/m 17,3 km/h (3 Bft) 2 min 21,9 km/h (4 Bft)
20.05.2010 10:52 17,2 C 15,9 C 12,3 UV-I 5,0 C 52 % 61 % 100 % 1031,5 hPa 0,0 l/m 15,7 km/h (3 Bft) 2 min 29,3 km/h (5 Bft)
20.05.2010 10:54 17,2 C 15,9 C 12,3 UV-I 5,2 C 52 % 61 % 100 % 1031,5 hPa 0,0 l/m 14,1 km/h (3 Bft) 2 min 19,6 km/h (3 Bft)
20.05.2010 10:58 17,2 C 16,0 C 11,8 UV-I 5,4 C 52 % 61 % 100 % 1031,5 hPa 0,0 l/m 12,0 km/h (2 Bft) 2 min 8,0 km/h (2 Bft)
20.05.2010 11:00 17,2 C 16,1 C 11,8 UV-I 5,4 C 52 % 60 % 100 % 1031,5 hPa 0,0 l/m 12,8 km/h (3 Bft) 2 min 9,7 km/h (2 Bft)
20.05.2010 11:04 17,2 C 16,3 C 12,0 UV-I 5,1 C 52 % 61 % 100 % 1031,5 hPa 0,0 l/m 13,3 km/h (3 Bft) 2 min 11,9 km/h (2 Bft)
20.05.2010 11:06 17,2 C 16,4 C 11,4 UV-I 5,3 C 52 % 60 % 100 % 1031,5 hPa 0,0 l/m 13,3 km/h (3 Bft) 2 min 19,6 km/h (3 Bft)
20.05.2010 11:08 17,2 C 16,5 C 11,4 UV-I 5,2 C 52 % 58 % 100 % 1031,5 hPa 0,0 l/m 14,1 km/h (3 Bft) 2 min 17,4 km/h (3 Bft)
20.05.2010 11:10 17,2 C 16,5 C 11,4 UV-I 5,1 C 52 % 58 % 100 % 1031,5 hPa 0,0 l/m 14,9 km/h (3 Bft) 2 min 31,2 km/h (5 Bft)
20.05.2010 11:12 17,2 C 16,4 C 12,0 UV-I 5,1 C 52 % 58 % 100 % 1031,6 hPa 0,0 l/m 15,3 km/h (3 Bft) 2 min 9,0 km/h (2 Bft)
20.05.2010 11:14 17,3 C 16,4 C 12,0 UV-I 5,1 C 52 % 59 % 100 % 1031,6 hPa 0,0 l/m 14,9 km/h (3 Bft) 2 min 20,3 km/h (4 Bft)
20.05.2010 11:16 17,3 C 16,6 C 12,2 UV-I 5,0 C 52 % 59 % 100 % 1031,6 hPa 0,0 l/m 16,1 km/h (3 Bft) 2 min 13,5 km/h (3 Bft)
20.05.2010 11:18 17,2 C 16,6 C 12,2 UV-I 5,1 C 52 % 59 % 100 % 1031,6 hPa 0,0 l/m 15,3 km/h (3 Bft) 2 min 11,6 km/h (2 Bft)
20.05.2010 11:24 17,4 C 16,8 C 12,3 UV-I 5,0 C 52 % 57 % 100 % 1031,6 hPa 0,0 l/m 12,8 km/h (3 Bft) 2 min 25,1 km/h (4 Bft)
20.05.2010 11:28 17,4 C 17,1 C 11,8 UV-I 5,0 C 52 % 55 % 100 % 1031,6 hPa 0,0 l/m 14,1 km/h (3 Bft) 2 min 15,1 km/h (3 Bft)
20.05.2010 11:30 17,4 C 17,1 C 11,8 UV-I 5,0 C 52 % 55 % 100 % 1031,6 hPa 0,0 l/m 14,5 km/h (3 Bft) 2 min 15,4 km/h (3 Bft)
20.05.2010 11:32 17,4 C 17,2 C 12,2 UV-I 4,9 C 52 % 55 % 100 % 1031,5 hPa 0,0 l/m 14,9 km/h (3 Bft) 2 min 18,3 km/h (3 Bft)
20.05.2010 11:34 17,4 C 17,2 C 12,2 UV-I 4,9 C 52 % 54 % 100 % 1031,5 hPa 0,0 l/m 16,1 km/h (3 Bft) 2 min 20,3 km/h (4 Bft)
20.05.2010 11:36 17,4 C 17,1 C 11,6 UV-I 4,8 C 52 % 54 % 100 % 1031,5 hPa 0,0 l/m 17,3 km/h (3 Bft) 2 min 19,0 km/h (3 Bft)
20.05.2010 11:40 17,5 C 17,2 C 11,6 UV-I 4,5 C 52 % 55 % 100 % 1031,5 hPa 0,0 l/m 17,7 km/h (3 Bft) 2 min 15,1 km/h (3 Bft)
20.05.2010 11:42 17,5 C 17,3 C 11,1 UV-I 4,4 C 52 % 54 % 100 % 1031,5 hPa 0,0 l/m 18,1 km/h (3 Bft) 2 min 29,9 km/h (5 Bft)
20.05.2010 11:44 17,5 C 17,2 C 11,1 UV-I 4,5 C 52 % 54 % 100 % 1031,5 hPa 0,0 l/m 19,3 km/h (3 Bft) 2 min 17,1 km/h (3 Bft)
20.05.2010 11:46 17,5 C 17,3 C 10,5 UV-I 4,4 C 52 % 54 % 100 % 1031,5 hPa 0,0 l/m 17,7 km/h (3 Bft) 2 min 15,8 km/h (3 Bft)
20.05.2010 11:48 17,5 C 17,5 C 10,5 UV-I 4,6 C 52 % 54 % 100 % 1031,5 hPa 0,0 l/m 18,1 km/h (3 Bft) 2 min 23,2 km/h (4 Bft)
20.05.2010 11:52 17,5 C 17,5 C 10,4 UV-I 4,6 C 52 % 53 % 100 % 1031,6 hPa 0,0 l/m 18,1 km/h (3 Bft) 2 min 32,2 km/h (5 Bft)
20.05.2010 11:54 17,6 C 17,4 C 10,4 UV-I 4,7 C 52 % 54 % 100 % 1031,6 hPa 0,0 l/m 15,7 km/h (3 Bft) 2 min 14,2 km/h (3 Bft)
20.05.2010 11:56 17,6 C 17,5 C 9,9 UV-I 4,6 C 52 % 53 % 100 % 1031,6 hPa 0,0 l/m 16,5 km/h (3 Bft) 2 min 20,0 km/h (4 Bft)
20.05.2010 12:00 17,6 C 17,6 C 9,9 UV-I 4,5 C 52 % 53 % 100 % 1031,6 hPa 0,0 l/m 16,5 km/h (3 Bft) 2 min 24,1 km/h (4 Bft)
20.05.2010 12:02 17,6 C 17,7 C 9,8 UV-I 4,4 C 52 % 53 % 100 % 1031,6 hPa 0,0 l/m 16,1 km/h (3 Bft) 2 min 5,8 km/h (2 Bft)
20.05.2010 12:04 17,6 C 17,7 C 9,8 UV-I 4,5 C 52 % 53 % 100 % 1031,6 hPa 0,0 l/m 16,5 km/h (3 Bft) 2 min 19,3 km/h (3 Bft)
20.05.2010 12:06 17,6 C 17,7 C 9,8 UV-I 4,5 C 51 % 53 % 100 % 1031,6 hPa 0,0 l/m 16,5 km/h (3 Bft) 2 min 19,3 km/h (3 Bft)
20.05.2010 12:08 17,7 C 17,8 C 9,8 UV-I 4,3 C 51 % 51 % 100 % 1031,6 hPa 0,0 l/m 18,1 km/h (3 Bft) 2 min 24,8 km/h (4 Bft)
20.05.2010 12:10 17,7 C 17,8 C 9,8 UV-I 4,3 C 51 % 51 % 100 % 1031,6 hPa 0,0 l/m 17,7 km/h (3 Bft) 2 min 9,0 km/h (2 Bft)
20.05.2010 12:12 17,7 C 17,9 C 9,1 UV-I 4,3 C 51 % 51 % 100 % 1031,5 hPa 0,0 l/m 18,1 km/h (3 Bft) 2 min 16,4 km/h (3 Bft)
20.05.2010 12:16 17,7 C 18,1 C 9,2 UV-I 4,1 C 51 % 52 % 100 % 1031,5 hPa 0,0 l/m 18,1 km/h (3 Bft) 2 min 17,1 km/h (3 Bft)
20.05.2010 12:18 17,7 C 18,1 C 9,2 UV-I 4,3 C 51 % 51 % 100 % 1031,5 hPa 0,0 l/m 16,9 km/h (3 Bft) 2 min 7,7 km/h (2 Bft)
20.05.2010 12:20 17,8 C 18,3 C 9,2 UV-I 4,4 C 51 % 52 % 100 % 1031,5 hPa 0,0 l/m 15,7 km/h (3 Bft) 2 min 35,1 km/h (5 Bft)
20.05.2010 12:24 17,8 C 18,1 C 8,9 UV-I 4,6 C 51 % 51 % 100 % 1031,5 hPa 0,0 l/m 14,9 km/h (3 Bft) 2 min 14,8 km/h (3 Bft)
20.05.2010 12:28 17,8 C 18,1 C 9,0 UV-I 4,4 C 51 % 50 % 100 % 1031,5 hPa 0,0 l/m 17,3 km/h (3 Bft) 2 min 19,6 km/h (3 Bft)
20.05.2010 12:30 17,8 C 18,0 C 9,0 UV-I 4,4 C 51 % 51 % 100 % 1031,5 hPa 0,0 l/m 17,7 km/h (3 Bft) 2 min 36,4 km/h (5 Bft)
20.05.2010 12:32 17,8 C 18,3 C 8,3 UV-I 4,1 C 51 % 51 % 100 % 1031,4 hPa 0,0 l/m 18,1 km/h (3 Bft) 2 min 16,4 km/h (3 Bft)
20.05.2010 12:34 17,9 C 18,3 C 8,3 UV-I 4,1 C 51 % 50 % 100 % 1031,4 hPa 0,0 l/m 20,1 km/h (4 Bft) 2 min 29,3 km/h (5 Bft)
20.05.2010 12:36 17,9 C 18,3 C 8,3 UV-I 4,0 C 51 % 51 % 100 % 1031,4 hPa 0,0 l/m 19,7 km/h (3 Bft) 2 min 20,9 km/h (4 Bft)
20.05.2010 12:40 17,9 C 18,3 C 8,3 UV-I 4,0 C 51 % 50 % 100 % 1031,4 hPa 0,0 l/m 18,1 km/h (3 Bft) 2 min 28,3 km/h (4 Bft)
20.05.2010 12:42 18,0 C 18,4 C 8,3 UV-I 4,1 C 51 % 50 % 100 % 1031,4 hPa 0,0 l/m 16,9 km/h (3 Bft) 2 min 9,0 km/h (2 Bft)
20.05.2010 12:44 18,0 C 18,4 C 8,3 UV-I 4,3 C 51 % 50 % 100 % 1031,4 hPa 0,0 l/m 16,1 km/h (3 Bft) 2 min 18,0 km/h (3 Bft)
20.05.2010 12:46 18,0 C 18,5 C 8,5 UV-I 4,2 C 51 % 50 % 100 % 1031,4 hPa 0,0 l/m 14,9 km/h (3 Bft) 2 min 16,1 km/h (3 Bft)
20.05.2010 12:48 18,0 C 18,6 C 8,5 UV-I 4,1 C 51 % 51 % 100 % 1031,4 hPa 0,0 l/m 14,1 km/h (3 Bft) 2 min 13,2 km/h (3 Bft)
20.05.2010 12:52 18,0 C 18,8 C 8,7 UV-I 4,2 C 51 % 50 % 100 % 1031,4 hPa 0,0 l/m 14,1 km/h (3 Bft) 2 min 17,1 km/h (3 Bft)
20.05.2010 12:54 18,0 C 18,8 C 8,7 UV-I 4,3 C 51 % 50 % 100 % 1031,4 hPa 0,0 l/m 14,9 km/h (3 Bft) 2 min 20,0 km/h (4 Bft)
20.05.2010 12:56 18,1 C 18,8 C 8,5 UV-I 4,3 C 51 % 49 % 100 % 1031,4 hPa 0,0 l/m 14,9 km/h (3 Bft) 2 min 20,3 km/h (4 Bft)
20.05.2010 12:58 18,1 C 18,8 C 8,5 UV-I 4,2 C 51 % 49 % 100 % 1031,4 hPa 0,0 l/m 15,7 km/h (3 Bft) 2 min 15,4 km/h (3 Bft)
20.05.2010 13:00 18,1 C 18,8 C 8,5 UV-I 4,2 C 51 % 47 % 100 % 1031,4 hPa 0,0 l/m 16,9 km/h (3 Bft) 2 min 22,9 km/h (4 Bft)
20.05.2010 13:02 18,1 C 18,8 C 8,2 UV-I 4,1 C 51 % 48 % 100 % 1031,4 hPa 0,0 l/m 17,3 km/h (3 Bft) 2 min 26,1 km/h (4 Bft)
20.05.2010 13:06 18,2 C 18,7 C 8,2 UV-I 4,0 C 51 % 48 % 100 % 1031,4 hPa 0,0 l/m 18,5 km/h (3 Bft) 2 min 18,0 km/h (3 Bft)
20.05.2010 13:08 18,2 C 18,9 C 8,2 UV-I 3,8 C 50 % 49 % 100 % 1031,4 hPa 0,0 l/m 17,3 km/h (3 Bft) 2 min 15,1 km/h (3 Bft)
20.05.2010 13:10 18,2 C 18,9 C 8,2 UV-I 3,8 C 50 % 49 % 100 % 1031,4 hPa 0,0 l/m 17,7 km/h (3 Bft) 2 min 16,4 km/h (3 Bft)
20.05.2010 13:14 18,2 C 18,8 C 8,4 UV-I 3,9 C 50 % 49 % 100 % 1031,6 hPa 0,0 l/m 16,9 km/h (3 Bft) 2 min 18,7 km/h (3 Bft)
20.05.2010 13:16 18,2 C 18,9 C 8,0 UV-I 3,9 C 50 % 49 % 100 % 1031,6 hPa 0,0 l/m 16,1 km/h (3 Bft) 2 min 12,9 km/h (3 Bft)
20.05.2010 13:18 18,3 C 18,9 C 8,0 UV-I 3,9 C 50 % 48 % 100 % 1031,6 hPa 0,0 l/m 17,7 km/h (3 Bft) 2 min 13,8 km/h (3 Bft)
20.05.2010 13:20 18,3 C 19,1 C 8,0 UV-I 3,7 C 50 % 47 % 100 % 1031,6 hPa 0,0 l/m 16,5 km/h (3 Bft) 2 min 16,4 km/h (3 Bft)
20.05.2010 13:22 18,2 C 19,0 C 7,8 UV-I 3,9 C 50 % 48 % 100 % 1031,6 hPa 0,0 l/m 16,1 km/h (3 Bft) 2 min 10,0 km/h (2 Bft)
20.05.2010 13:26 18,4 C 19,1 C 8,0 UV-I 3,8 C 50 % 47 % 100 % 1031,6 hPa 0,0 l/m 16,9 km/h (3 Bft) 2 min 25,1 km/h (4 Bft)
20.05.2010 13:28 18,4 C 19,2 C 8,0 UV-I 3,7 C 50 % 46 % 100 % 1031,6 hPa 0,0 l/m 16,5 km/h (3 Bft) 2 min 28,3 km/h (4 Bft)
20.05.2010 13:30 18,4 C 19,2 C 8,0 UV-I 3,8 C 50 % 47 % 100 % 1031,6 hPa 0,0 l/m 16,5 km/h (3 Bft) 2 min 6,4 km/h (2 Bft)
20.05.2010 13:32 18,4 C 19,2 C 7,7 UV-I 3,9 C 50 % 47 % 100 % 1031,9 hPa 0,0 l/m 15,3 km/h (3 Bft) 2 min 21,6 km/h (4 Bft)
20.05.2010 13:34 18,4 C 19,3 C 7,7 UV-I 4,0 C 50 % 46 % 100 % 1031,9 hPa 0,0 l/m 14,9 km/h (3 Bft) 2 min 18,3 km/h (3 Bft)
20.05.2010 13:36 18,4 C 19,3 C 8,2 UV-I 4,0 C 50 % 46 % 100 % 1031,9 hPa 0,0 l/m 14,9 km/h (3 Bft) 2 min 12,9 km/h (3 Bft)
20.05.2010 13:38 18,5 C 19,4 C 8,2 UV-I 3,9 C 50 % 46 % 100 % 1031,9 hPa 0,0 l/m 14,5 km/h (3 Bft) 2 min 6,1 km/h (2 Bft)
20.05.2010 13:42 18,5 C 19,5 C 7,8 UV-I 4,0 C 50 % 45 % 100 % 1031,9 hPa 0,0 l/m 14,5 km/h (3 Bft) 2 min 25,4 km/h (4 Bft)
20.05.2010 13:44 18,5 C 19,5 C 7,8 UV-I 4,0 C 50 % 46 % 100 % 1031,9 hPa 0,0 l/m 14,9 km/h (3 Bft) 2 min 19,3 km/h (3 Bft)
20.05.2010 13:46 18,6 C 19,5 C 7,8 UV-I 3,9 C 50 % 46 % 100 % 1031,9 hPa 0,0 l/m 14,9 km/h (3 Bft) 2 min 26,4 km/h (4 Bft)
20.05.2010 13:48 18,6 C 19,5 C 7,8 UV-I 3,8 C 50 % 48 % 100 % 1031,9 hPa 0,0 l/m 15,3 km/h (3 Bft) 2 min 12,9 km/h (3 Bft)
20.05.2010 13:52 18,6 C 19,7 C 8,4 UV-I 3,7 C 50 % 47 % 100 % 1031,1 hPa 0,0 l/m 15,7 km/h (3 Bft) 2 min 19,6 km/h (3 Bft)
20.05.2010 13:54 18,7 C 19,6 C 8,4 UV-I 4,1 C 49 % 48 % 100 % 1031,1 hPa 0,0 l/m 13,3 km/h (3 Bft) 2 min 17,4 km/h (3 Bft)
20.05.2010 13:58 18,7 C 20,0 C 8,2 UV-I 4,1 C 49 % 47 % 100 % 1031,1 hPa 0,0 l/m 10,0 km/h (2 Bft) 2 min 8,4 km/h (2 Bft)
20.05.2010 14:02 18,8 C 20,1 C 8,2 UV-I 4,3 C 49 % 45 % 100 % 1031,1 hPa 0,0 l/m 10,8 km/h (2 Bft) 2 min 20,3 km/h (4 Bft)
20.05.2010 14:04 18,9 C 20,0 C 8,2 UV-I 4,2 C 49 % 45 % 100 % 1031,1 hPa 0,0 l/m 12,4 km/h (3 Bft) 2 min 23,5 km/h (4 Bft)
20.05.2010 14:06 19,0 C 19,9 C 8,0 UV-I 4,1 C 49 % 45 % 100 % 1031,1 hPa 0,0 l/m 13,7 km/h (3 Bft) 2 min 10,0 km/h (2 Bft)
20.05.2010 14:08 19,0 C 20,0 C 8,0 UV-I 4,0 C 49 % 46 % 100 % 1031,1 hPa 0,0 l/m 14,1 km/h (3 Bft) 2 min 8,7 km/h (2 Bft)
20.05.2010 14:10 19,1 C 20,1 C 8,0 UV-I 4,1 C 49 % 46 % 100 % 1031,1 hPa 0,0 l/m 14,9 km/h (3 Bft) 2 min 12,2 km/h (2 Bft)
20.05.2010 14:12 19,2 C 20,1 C 8,5 UV-I 4,1 C 49 % 44 % 100 % 1031,3 hPa 0,0 l/m 14,9 km/h (3 Bft) 2 min 19,3 km/h (3 Bft)
20.05.2010 14:14 19,2 C 20,0 C 8,5 UV-I 4,0 C 48 % 45 % 100 % 1031,3 hPa 0,0 l/m 15,3 km/h (3 Bft) 2 min 13,8 km/h (3 Bft)
20.05.2010 14:16 19,3 C 20,0 C 8,6 UV-I 3,8 C 48 % 45 % 100 % 1031,3 hPa 0,0 l/m 14,9 km/h (3 Bft) 2 min 10,6 km/h (2 Bft)
20.05.2010 14:18 19,2 C 20,1 C 8,6 UV-I 3,7 C 48 % 45 % 100 % 1031,3 hPa 0,0 l/m 14,9 km/h (3 Bft) 2 min 10,3 km/h (2 Bft)
20.05.2010 14:20 19,4 C 20,0 C 8,6 UV-I 3,9 C 48 % 44 % 100 % 1031,3 hPa 0,0 l/m 15,7 km/h (3 Bft) 2 min 14,8 km/h (3 Bft)
20.05.2010 14:22 19,4 C 20,1 C 8,6 UV-I 3,8 C 48 % 45 % 100 % 1031,3 hPa 0,0 l/m 15,7 km/h (3 Bft) 2 min 13,5 km/h (3 Bft)
20.05.2010 14:24 19,5 C 20,1 C 8,6 UV-I 3,9 C 48 % 44 % 100 % 1031,3 hPa 0,0 l/m 13,3 km/h (3 Bft) 2 min 9,7 km/h (2 Bft)
20.05.2010 14:28 19,6 C 20,3 C 8,6 UV-I 3,7 C 47 % 44 % 100 % 1031,3 hPa 0,0 l/m 14,1 km/h (3 Bft) 2 min 23,8 km/h (4 Bft)
20.05.2010 14:30 19,6 C 20,3 C 8,6 UV-I 3,7 C 47 % 44 % 100 % 1031,3 hPa 0,0 l/m 13,7 km/h (3 Bft) 2 min 8,4 km/h (2 Bft)
20.05.2010 14:32 19,7 C 20,2 C 8,8 UV-I 4,0 C 47 % 45 % 100 % 1032,6 hPa 0,0 l/m 12,8 km/h (3 Bft) 2 min 5,8 km/h (2 Bft)
20.05.2010 14:34 19,8 C 20,4 C 8,8 UV-I 4,0 C 47 % 44 % 100 % 1032,6 hPa 0,0 l/m 14,1 km/h (3 Bft) 2 min 17,1 km/h (3 Bft)
20.05.2010 14:36 19,8 C 20,4 C 8,6 UV-I 3,9 C 47 % 43 % 100 % 1032,6 hPa 0,0 l/m 14,5 km/h (3 Bft) 2 min 13,8 km/h (3 Bft)
20.05.2010 14:38 19,8 C 20,5 C 8,6 UV-I 3,9 C 47 % 44 % 100 % 1032,6 hPa 0,0 l/m 13,7 km/h (3 Bft) 2 min 8,4 km/h (2 Bft)
20.05.2010 14:40 19,9 C 20,6 C 8,6 UV-I 3,9 C 47 % 43 % 100 % 1032,6 hPa 0,0 l/m 14,1 km/h (3 Bft) 2 min 17,4 km/h (3 Bft)
20.05.2010 14:44 20,0 C 20,5 C 8,4 UV-I 3,9 C 47 % 42 % 100 % 1032,6 hPa 0,0 l/m 15,7 km/h (3 Bft) 2 min 20,3 km/h (4 Bft)
20.05.2010 14:46 20,0 C 20,5 C 8,8 UV-I 3,7 C 47 % 43 % 100 % 1032,6 hPa 0,0 l/m 16,1 km/h (3 Bft) 2 min 10,9 km/h (2 Bft)
20.05.2010 14:48 20,1 C 20,6 C 8,8 UV-I 3,6 C 46 % 42 % 100 % 1032,6 hPa 0,0 l/m 16,1 km/h (3 Bft) 2 min 11,9 km/h (2 Bft)
20.05.2010 14:50 20,2 C 20,7 C 8,8 UV-I 3,6 C 46 % 42 % 100 % 1032,6 hPa 0,0 l/m 17,7 km/h (3 Bft) 2 min 18,0 km/h (3 Bft)
20.05.2010 14:52 20,2 C 20,6 C 9,0 UV-I 3,6 C 46 % 41 % 100 % 1033,2 hPa 0,0 l/m 17,3 km/h (3 Bft) 2 min 10,9 km/h (2 Bft)
20.05.2010 14:56 20,4 C 20,7 C 9,0 UV-I 3,7 C 46 % 41 % 100 % 1033,2 hPa 0,0 l/m 14,5 km/h (3 Bft) 2 min 17,7 km/h (3 Bft)
20.05.2010 15:00 20,5 C 20,9 C 9,0 UV-I 3,7 C 45 % 43 % 100 % 1033,2 hPa 0,0 l/m 14,5 km/h (3 Bft) 2 min 14,2 km/h (3 Bft)
20.05.2010 15:06 20,7 C 20,9 C 8,8 UV-I 3,8 C 45 % 41 % 100 % 1033,2 hPa 0,0 l/m 14,5 km/h (3 Bft) 2 min 25,7 km/h (4 Bft)
20.05.2010 15:10 20,8 C 20,7 C 8,8 UV-I 3,8 C 45 % 41 % 100 % 1033,2 hPa 0,0 l/m 16,5 km/h (3 Bft) 2 min 21,6 km/h (4 Bft)
20.05.2010 15:12 20,9 C 20,8 C 9,1 UV-I 3,7 C 45 % 42 % 100 % 1033,2 hPa 0,0 l/m 16,9 km/h (3 Bft) 2 min 18,3 km/h (3 Bft)
20.05.2010 15:14 20,9 C 20,8 C 9,1 UV-I 3,7 C 45 % 41 % 100 % 1033,2 hPa 0,0 l/m 16,9 km/h (3 Bft) 2 min 31,9 km/h (5 Bft)
20.05.2010 15:18 21,1 C 20,9 C 8,8 UV-I 3,6 C 44 % 41 % 100 % 1033,2 hPa 0,0 l/m 17,3 km/h (3 Bft) 2 min 13,2 km/h (3 Bft)
20.05.2010 15:20 21,2 C 20,8 C 8,8 UV-I 3,6 C 44 % 41 % 100 % 1033,2 hPa 0,0 l/m 16,9 km/h (3 Bft) 2 min 18,3 km/h (3 Bft)
20.05.2010 15:22 21,2 C 20,9 C 9,2 UV-I 3,5 C 44 % 41 % 100 % 1033,2 hPa 0,0 l/m 16,9 km/h (3 Bft) 2 min 15,1 km/h (3 Bft)
20.05.2010 15:24 21,2 C 20,9 C 9,2 UV-I 3,4 C 44 % 41 % 97 % 1033,2 hPa 0,0 l/m 17,3 km/h (3 Bft) 2 min 12,9 km/h (3 Bft)
20.05.2010 15:26 21,2 C 20,8 C 8,8 UV-I 3,5 C 44 % 41 % 100 % 1033,2 hPa 0,0 l/m 17,3 km/h (3 Bft) 2 min 17,4 km/h (3 Bft)
20.05.2010 15:28 21,4 C 20,9 C 8,8 UV-I 3,4 C 44 % 42 % 97 % 1033,2 hPa 0,0 l/m 16,1 km/h (3 Bft) 2 min 7,1 km/h (2 Bft)
20.05.2010 15:30 21,4 C 21,0 C 8,8 UV-I 3,5 C 43 % 43 % 100 % 1033,2 hPa 0,0 l/m 14,5 km/h (3 Bft) 2 min 15,8 km/h (3 Bft)
20.05.2010 15:32 21,5 C 21,1 C 8,6 UV-I 3,6 C 43 % 41 % 100 % 1033,9 hPa 0,0 l/m 14,9 km/h (3 Bft) 2 min 13,5 km/h (3 Bft)
20.05.2010 15:42 21,7 C 21,3 C 8,6 UV-I 3,6 C 43 % 40 % 100 % 1033,9 hPa 0,0 l/m 14,9 km/h (3 Bft) 2 min 17,1 km/h (3 Bft)
20.05.2010 15:44 21,8 C 21,3 C 8,6 UV-I 3,6 C 43 % 40 % 100 % 1033,9 hPa 0,0 l/m 15,3 km/h (3 Bft) 2 min 17,1 km/h (3 Bft)
20.05.2010 15:46 21,9 C 21,2 C 8,7 UV-I 3,8 C 43 % 41 % 100 % 1033,9 hPa 0,0 l/m 14,5 km/h (3 Bft) 2 min 27,0 km/h (4 Bft)
20.05.2010 15:48 22,0 C 21,3 C 8,7 UV-I 3,8 C 42 % 39 % 100 % 1033,9 hPa 0,0 l/m 14,5 km/h (3 Bft) 2 min 24,5 km/h (4 Bft)
20.05.2010 15:52 22,0 C 21,2 C 9,2 UV-I 3,8 C 42 % 40 % 100 % 1035,2 hPa 0,0 l/m 15,3 km/h (3 Bft) 2 min 15,1 km/h (3 Bft)
20.05.2010 15:54 22,1 C 21,3 C 9,2 UV-I 3,6 C 42 % 40 % 100 % 1035,2 hPa 0,0 l/m 14,5 km/h (3 Bft) 2 min 16,4 km/h (3 Bft)
20.05.2010 15:56 22,1 C 21,3 C 9,2 UV-I 3,8 C 42 % 41 % 100 % 1035,2 hPa 0,0 l/m 14,5 km/h (3 Bft) 2 min 14,8 km/h (3 Bft)
20.05.2010 15:58 22,2 C 21,3 C 9,2 UV-I 3,8 C 42 % 41 % 100 % 1035,2 hPa 0,0 l/m 13,3 km/h (3 Bft) 2 min 18,3 km/h (3 Bft)
20.05.2010 16:00 22,2 C 21,3 C 9,2 UV-I 3,9 C 42 % 41 % 100 % 1035,2 hPa 0,0 l/m 13,7 km/h (3 Bft) 2 min 12,2 km/h (2 Bft)
20.05.2010 16:02 22,3 C 21,3 C 8,9 UV-I 3,9 C 42 % 39 % 100 % 1035,2 hPa 0,0 l/m 14,1 km/h (3 Bft) 2 min 24,1 km/h (4 Bft)
20.05.2010 16:04 22,3 C 21,2 C 8,9 UV-I 4,0 C 42 % 40 % 100 % 1035,2 hPa 0,0 l/m 13,7 km/h (3 Bft) 2 min 18,0 km/h (3 Bft)
20.05.2010 16:06 22,4 C 21,3 C 9,6 UV-I 3,7 C 41 % 39 % 100 % 1035,2 hPa 0,0 l/m 14,5 km/h (3 Bft) 2 min 21,6 km/h (4 Bft)
20.05.2010 16:08 22,4 C 21,2 C 9,6 UV-I 3,8 C 41 % 39 % 100 % 1035,2 hPa 0,0 l/m 16,1 km/h (3 Bft) 2 min 15,1 km/h (3 Bft)
20.05.2010 16:10 22,4 C 21,1 C 9,6 UV-I 3,8 C 41 % 38 % 100 % 1035,2 hPa 0,0 l/m 16,1 km/h (3 Bft) 2 min 18,3 km/h (3 Bft)
20.05.2010 16:12 22,4 C 21,1 C 9,2 UV-I 3,6 C 41 % 39 % 100 % 1034,8 hPa 0,0 l/m 16,9 km/h (3 Bft) 2 min 25,1 km/h (4 Bft)
20.05.2010 16:14 22,5 C 21,2 C 9,2 UV-I 3,5 C 41 % 38 % 100 % 1034,8 hPa 0,0 l/m 16,5 km/h (3 Bft) 2 min 15,8 km/h (3 Bft)
20.05.2010 16:16 22,5 C 21,2 C 9,5 UV-I 3,5 C 41 % 39 % 100 % 1034,8 hPa 0,0 l/m 16,9 km/h (3 Bft) 2 min 18,7 km/h (3 Bft)
20.05.2010 16:18 22,5 C 21,2 C 9,5 UV-I 3,6 C 41 % 40 % 100 % 1034,8 hPa 0,0 l/m 16,1 km/h (3 Bft) 2 min 24,8 km/h (4 Bft)
20.05.2010 16:20 22,5 C 21,3 C 9,5 UV-I 3,6 C 41 % 40 % 100 % 1034,8 hPa 0,0 l/m 16,1 km/h (3 Bft) 2 min 16,1 km/h (3 Bft)
20.05.2010 16:22 22,6 C 21,3 C 9,6 UV-I 3,6 C 41 % 39 % 100 % 1034,8 hPa 0,0 l/m 16,1 km/h (3 Bft) 2 min 23,5 km/h (4 Bft)
20.05.2010 16:24 22,6 C 21,3 C 9,6 UV-I 3,5 C 41 % 39 % 100 % 1034,8 hPa 0,0 l/m 16,5 km/h (3 Bft) 2 min 24,1 km/h (4 Bft)
20.05.2010 16:26 22,6 C 21,3 C 10,2 UV-I 3,5 C 41 % 39 % 100 % 1034,8 hPa 0,0 l/m 16,9 km/h (3 Bft) 2 min 16,4 km/h (3 Bft)
20.05.2010 16:28 22,6 C 21,3 C 10,2 UV-I 3,5 C 41 % 39 % 100 % 1034,8 hPa 0,0 l/m 16,1 km/h (3 Bft) 2 min 7,4 km/h (2 Bft)
20.05.2010 16:30 22,6 C 21,3 C 10,2 UV-I 3,6 C 41 % 39 % 100 % 1034,8 hPa 0,0 l/m 16,1 km/h (3 Bft) 2 min 31,9 km/h (5 Bft)
20.05.2010 16:32 22,7 C 21,2 C 10,0 UV-I 3,6 C 41 % 39 % 100 % 1033,7 hPa 0,0 l/m 17,3 km/h (3 Bft) 2 min 20,6 km/h (4 Bft)
20.05.2010 16:34 22,7 C 21,2 C 10,0 UV-I 3,5 C 41 % 39 % 100 % 1033,7 hPa 0,0 l/m 16,5 km/h (3 Bft) 2 min 7,1 km/h (2 Bft)
20.05.2010 16:36 22,7 C 21,2 C 10,3 UV-I 3,6 C 41 % 39 % 100 % 1033,7 hPa 0,0 l/m 14,5 km/h (3 Bft) 2 min 7,4 km/h (2 Bft)
20.05.2010 16:38 22,8 C 21,3 C 10,3 UV-I 3,6 C 41 % 40 % 100 % 1033,7 hPa 0,0 l/m 14,1 km/h (3 Bft) 2 min 8,0 km/h (2 Bft)
20.05.2010 16:40 22,8 C 21,4 C 10,3 UV-I 3,6 C 40 % 40 % 100 % 1033,7 hPa 0,0 l/m 15,3 km/h (3 Bft) 2 min 13,2 km/h (3 Bft)
20.05.2010 16:42 22,8 C 21,5 C 10,6 UV-I 3,5 C 40 % 39 % 100 % 1033,7 hPa 0,0 l/m 13,7 km/h (3 Bft) 2 min 13,8 km/h (3 Bft)
20.05.2010 16:44 22,8 C 21,5 C 10,6 UV-I 3,6 C 40 % 38 % 100 % 1033,7 hPa 0,0 l/m 14,5 km/h (3 Bft) 2 min 28,0 km/h (4 Bft)
20.05.2010 16:46 22,9 C 21,4 C 10,6 UV-I 3,6 C 40 % 38 % 100 % 1033,7 hPa 0,0 l/m 15,3 km/h (3 Bft) 2 min 19,6 km/h (3 Bft)
20.05.2010 16:48 22,9 C 21,3 C 10,6 UV-I 3,7 C 40 % 39 % 100 % 1033,7 hPa 0,0 l/m 16,5 km/h (3 Bft) 2 min 12,9 km/h (3 Bft)
20.05.2010 16:50 22,9 C 21,4 C 10,6 UV-I 3,5 C 40 % 40 % 100 % 1033,7 hPa 0,0 l/m 15,7 km/h (3 Bft) 2 min 10,3 km/h (2 Bft)
20.05.2010 16:52 22,9 C 21,5 C 10,0 UV-I 3,5 C 40 % 40 % 100 % 1034,8 hPa 0,0 l/m 16,1 km/h (3 Bft) 2 min 9,3 km/h (2 Bft)
20.05.2010 16:54 22,9 C 21,5 C 10,0 UV-I 3,6 C 40 % 40 % 100 % 1034,8 hPa 0,0 l/m 15,3 km/h (3 Bft) 2 min 7,7 km/h (2 Bft)
20.05.2010 16:56 23,0 C 21,5 C 9,9 UV-I 3,5 C 40 % 40 % 100 % 1034,8 hPa 0,0 l/m 14,1 km/h (3 Bft) 2 min 9,0 km/h (2 Bft)
20.05.2010 16:58 23,0 C 21,6 C 9,9 UV-I 3,4 C 40 % 40 % 97 % 1034,8 hPa 0,0 l/m 13,7 km/h (3 Bft) 2 min 22,5 km/h (4 Bft)
20.05.2010 17:00 23,0 C 21,5 C 9,9 UV-I 3,6 C 40 % 41 % 100 % 1034,8 hPa 0,0 l/m 13,3 km/h (3 Bft) 2 min 9,7 km/h (2 Bft)
20.05.2010 17:02 23,0 C 21,5 C 9,5 UV-I 3,6 C 40 % 40 % 100 % 1034,8 hPa 0,0 l/m 14,1 km/h (3 Bft) 2 min 14,5 km/h (3 Bft)
20.05.2010 17:04 23,0 C 21,5 C 9,5 UV-I 3,5 C 40 % 39 % 100 % 1034,8 hPa 0,0 l/m 14,9 km/h (3 Bft) 2 min 23,2 km/h (4 Bft)
20.05.2010 17:06 23,0 C 21,5 C 10,2 UV-I 3,4 C 40 % 41 % 97 % 1034,8 hPa 0,0 l/m 14,1 km/h (3 Bft) 2 min 7,1 km/h (2 Bft)
20.05.2010 17:08 23,1 C 21,5 C 10,2 UV-I 3,4 C 40 % 40 % 97 % 1034,8 hPa 0,0 l/m 14,9 km/h (3 Bft) 2 min 20,3 km/h (4 Bft)
20.05.2010 17:10 23,1 C 21,5 C 10,2 UV-I 3,4 C 40 % 40 % 97 % 1034,8 hPa 0,0 l/m 15,3 km/h (3 Bft) 2 min 15,4 km/h (3 Bft)
20.05.2010 17:12 23,1 C 21,5 C 10,2 UV-I 3,3 C 40 % 40 % 94 % 1034,3 hPa 0,0 l/m 16,1 km/h (3 Bft) 2 min 12,9 km/h (3 Bft)
20.05.2010 17:14 23,1 C 21,5 C 10,2 UV-I 3,3 C 40 % 40 % 94 % 1034,3 hPa 0,0 l/m 14,5 km/h (3 Bft) 2 min 12,6 km/h (3 Bft)
20.05.2010 17:16 23,1 C 21,5 C 9,5 UV-I 3,3 C 40 % 40 % 94 % 1034,3 hPa 0,0 l/m 13,7 km/h (3 Bft) 2 min 11,9 km/h (2 Bft)
20.05.2010 17:18 23,1 C 21,4 C 9,5 UV-I 3,5 C 40 % 40 % 100 % 1034,3 hPa 0,0 l/m 13,7 km/h (3 Bft) 2 min 13,2 km/h (3 Bft)
20.05.2010 17:20 23,1 C 21,5 C 9,5 UV-I 3,3 C 40 % 39 % 94 % 1034,3 hPa 0,0 l/m 16,1 km/h (3 Bft) 2 min 28,3 km/h (4 Bft)
20.05.2010 17:22 23,1 C 21,5 C 7,2 UV-I 3,2 C 40 % 39 % 91 % 1034,3 hPa 0,0 l/m 16,5 km/h (3 Bft) 2 min 20,0 km/h (4 Bft)
20.05.2010 17:24 23,1 C 21,3 C 7,2 UV-I 3,3 C 40 % 39 % 94 % 1034,3 hPa 0,0 l/m 16,5 km/h (3 Bft) 2 min 13,8 km/h (3 Bft)
20.05.2010 17:26 23,2 C 21,3 C 6,4 UV-I 3,3 C 40 % 39 % 94 % 1034,3 hPa 0,0 l/m 16,5 km/h (3 Bft) 2 min 12,9 km/h (3 Bft)
20.05.2010 17:28 23,2 C 21,4 C 6,4 UV-I 3,3 C 40 % 39 % 94 % 1034,3 hPa 0,0 l/m 16,5 km/h (3 Bft) 2 min 14,5 km/h (3 Bft)
20.05.2010 17:30 23,1 C 21,3 C 6,4 UV-I 3,4 C 40 % 40 % 97 % 1034,3 hPa 0,0 l/m 14,5 km/h (3 Bft) 2 min 15,8 km/h (3 Bft)
20.05.2010 17:32 23,1 C 21,3 C 6,1 UV-I 3,4 C 40 % 40 % 97 % 1033,1 hPa 0,0 l/m 12,8 km/h (3 Bft) 2 min 11,3 km/h (2 Bft)
20.05.2010 17:34 23,1 C 21,3 C 6,1 UV-I 3,3 C 40 % 40 % 94 % 1033,1 hPa 0,0 l/m 13,3 km/h (3 Bft) 2 min 26,7 km/h (4 Bft)
20.05.2010 17:36 23,2 C 21,3 C 5,9 UV-I 3,3 C 40 % 39 % 94 % 1033,1 hPa 0,0 l/m 14,5 km/h (3 Bft) 2 min 18,0 km/h (3 Bft)
20.05.2010 17:38 23,1 C 21,2 C 5,9 UV-I 3,3 C 40 % 39 % 94 % 1033,1 hPa 0,0 l/m 14,5 km/h (3 Bft) 2 min 11,6 km/h (2 Bft)
20.05.2010 17:40 23,1 C 21,2 C 5,9 UV-I 3,3 C 40 % 40 % 94 % 1033,1 hPa 0,0 l/m 15,7 km/h (3 Bft) 2 min 16,4 km/h (3 Bft)
20.05.2010 17:42 23,1 C 21,2 C 4,3 UV-I 3,3 C 40 % 40 % 94 % 1033,1 hPa 0,0 l/m 16,1 km/h (3 Bft) 2 min 16,4 km/h (3 Bft)
20.05.2010 17:44 23,1 C 21,1 C 4,3 UV-I 3,3 C 40 % 40 % 94 % 1033,1 hPa 0,0 l/m 16,1 km/h (3 Bft) 2 min 15,8 km/h (3 Bft)
20.05.2010 17:46 23,1 C 21,0 C 4,5 UV-I 3,3 C 40 % 40 % 94 % 1033,1 hPa 0,0 l/m 15,7 km/h (3 Bft) 2 min 19,0 km/h (3 Bft)
20.05.2010 17:48 23,0 C 20,9 C 4,5 UV-I 3,3 C 40 % 40 % 94 % 1033,1 hPa 0,0 l/m 16,1 km/h (3 Bft) 2 min 23,2 km/h (4 Bft)
20.05.2010 17:50 23,0 C 20,9 C 4,5 UV-I 3,2 C 40 % 40 % 91 % 1033,1 hPa 0,0 l/m 16,9 km/h (3 Bft) 2 min 15,1 km/h (3 Bft)
20.05.2010 17:52 23,0 C 20,9 C 4,2 UV-I 3,1 C 40 % 41 % 89 % 1032,4 hPa 0,0 l/m 16,1 km/h (3 Bft) 2 min 6,8 km/h (2 Bft)
20.05.2010 17:54 23,0 C 20,9 C 4,2 UV-I 3,1 C 40 % 41 % 89 % 1032,4 hPa 0,0 l/m 16,9 km/h (3 Bft) 2 min 38,6 km/h (5 Bft)
20.05.2010 17:56 23,0 C 20,9 C 3,8 UV-I 3,1 C 40 % 41 % 89 % 1032,4 hPa 0,0 l/m 17,3 km/h (3 Bft) 2 min 9,0 km/h (2 Bft)
20.05.2010 17:58 23,0 C 20,9 C 3,8 UV-I 3,1 C 40 % 41 % 89 % 1032,4 hPa 0,0 l/m 16,5 km/h (3 Bft) 2 min 20,0 km/h (4 Bft)
20.05.2010 18:00 23,0 C 20,9 C 3,8 UV-I 3,1 C 40 % 41 % 89 % 1032,4 hPa 0,0 l/m 15,7 km/h (3 Bft) 2 min 38,6 km/h (5 Bft)
20.05.2010 18:02 23,0 C 20,8 C 3,8 UV-I 3,1 C 40 % 40 % 89 % 1032,4 hPa 0,0 l/m 15,3 km/h (3 Bft) 2 min 16,4 km/h (3 Bft)
20.05.2010 18:04 23,0 C 20,8 C 3,8 UV-I 2,8 C 40 % 40 % 80 % 1032,4 hPa 0,0 l/m 15,7 km/h (3 Bft) 0 min 19,0 km/h (3 Bft)
20.05.2010 18:06 22,9 C 20,8 C 3,7 UV-I 2,7 C 40 % 41 % 77 % 1032,4 hPa 0,0 l/m 14,1 km/h (3 Bft) 0 min 17,4 km/h (3 Bft)
20.05.2010 18:08 22,9 C 20,9 C 3,7 UV-I 2,3 C 40 % 41 % 66 % 1032,4 hPa 0,0 l/m 14,1 km/h (3 Bft) 0 min 19,0 km/h (3 Bft)
20.05.2010 18:10 22,8 C 20,8 C 3,7 UV-I 2,2 C 40 % 41 % 63 % 1032,4 hPa 0,0 l/m 15,3 km/h (3 Bft) 0 min 14,2 km/h (3 Bft)
20.05.2010 18:12 22,8 C 20,8 C 3,6 UV-I 1,9 C 40 % 41 % 54 % 1032,2 hPa 0,0 l/m 14,5 km/h (3 Bft) 0 min 15,1 km/h (3 Bft)
20.05.2010 18:14 22,8 C 20,7 C 3,6 UV-I 1,7 C 40 % 41 % 49 % 1032,2 hPa 0,0 l/m 14,9 km/h (3 Bft) 0 min 11,3 km/h (2 Bft)
20.05.2010 18:16 22,7 C 20,7 C 3,6 UV-I 1,5 C 40 % 41 % 43 % 1032,2 hPa 0,0 l/m 14,1 km/h (3 Bft) 0 min 13,2 km/h (3 Bft)
20.05.2010 18:18 22,6 C 20,7 C 3,6 UV-I 1,4 C 40 % 41 % 40 % 1032,2 hPa 0,0 l/m 13,7 km/h (3 Bft) 0 min 11,3 km/h (2 Bft)
20.05.2010 18:20 22,6 C 20,7 C 3,6 UV-I 1,3 C 40 % 41 % 37 % 1032,2 hPa 0,0 l/m 12,8 km/h (3 Bft) 0 min 18,3 km/h (3 Bft)
20.05.2010 18:22 22,6 C 20,7 C 3,1 UV-I 1,1 C 40 % 41 % 31 % 1032,2 hPa 0,0 l/m 12,8 km/h (3 Bft) 0 min 10,6 km/h (2 Bft)
20.05.2010 18:24 22,5 C 20,7 C 3,1 UV-I 0,9 C 40 % 42 % 26 % 1032,2 hPa 0,0 l/m 12,0 km/h (2 Bft) 0 min 6,8 km/h (2 Bft)
20.05.2010 18:26 22,5 C 20,7 C 2,8 UV-I 0,8 C 40 % 42 % 23 % 1032,2 hPa 0,0 l/m 11,6 km/h (2 Bft) 0 min 10,3 km/h (2 Bft)
20.05.2010 18:28 22,4 C 20,7 C 2,8 UV-I 0,9 C 40 % 42 % 26 % 1032,2 hPa 0,0 l/m 11,2 km/h (2 Bft) 0 min 14,8 km/h (3 Bft)
20.05.2010 18:30 22,4 C 20,7 C 2,8 UV-I 0,9 C 40 % 42 % 26 % 1032,2 hPa 0,0 l/m 11,6 km/h (2 Bft) 0 min 11,9 km/h (2 Bft)
20.05.2010 18:32 22,4 C 20,7 C 3,0 UV-I 1,0 C 41 % 42 % 29 % 1031,4 hPa 0,0 l/m 10,8 km/h (2 Bft) 0 min 10,0 km/h (2 Bft)
20.05.2010 18:34 22,3 C 20,7 C 3,0 UV-I 0,9 C 41 % 42 % 26 % 1031,4 hPa 0,0 l/m 11,6 km/h (2 Bft) 0 min 13,8 km/h (3 Bft)
20.05.2010 18:36 22,3 C 20,7 C 3,2 UV-I 0,8 C 41 % 42 % 23 % 1031,4 hPa 0,0 l/m 12,4 km/h (3 Bft) 0 min 19,0 km/h (3 Bft)
20.05.2010 18:38 22,2 C 20,7 C 3,2 UV-I 0,7 C 41 % 41 % 20 % 1031,4 hPa 0,0 l/m 14,5 km/h (3 Bft) 0 min 12,6 km/h (3 Bft)
20.05.2010 18:40 22,2 C 20,7 C 3,2 UV-I 0,5 C 41 % 42 % 14 % 1031,4 hPa 0,0 l/m 14,9 km/h (3 Bft) 0 min 19,6 km/h (3 Bft)
20.05.2010 18:42 22,2 C 20,6 C 2,6 UV-I 0,5 C 41 % 42 % 14 % 1031,4 hPa 0,0 l/m 14,9 km/h (3 Bft) 0 min 15,8 km/h (3 Bft)
20.05.2010 18:44 22,1 C 20,6 C 2,6 UV-I 0,4 C 41 % 41 % 11 % 1031,4 hPa 0,0 l/m 14,9 km/h (3 Bft) 0 min 15,4 km/h (3 Bft)
20.05.2010 18:46 22,1 C 20,7 C 2,7 UV-I 0,2 C 41 % 41 % 6 % 1031,4 hPa 0,0 l/m 15,3 km/h (3 Bft) 0 min 9,0 km/h (2 Bft)
20.05.2010 18:48 22,0 C 20,7 C 2,7 UV-I 0,0 C 41 % 41 % 0 % 1031,4 hPa 0,0 l/m 14,5 km/h (3 Bft) 0 min 12,2 km/h (2 Bft)
20.05.2010 18:50 22,0 C 20,7 C 2,7 UV-I 0,0 C 41 % 42 % 0 % 1031,4 hPa 0,0 l/m 14,1 km/h (3 Bft) 0 min 6,8 km/h (2 Bft)
20.05.2010 18:52 22,0 C 20,7 C 2,3 UV-I 0,0 C 41 % 42 % 0 % 1030,5 hPa 0,0 l/m 14,5 km/h (3 Bft) 0 min 14,2 km/h (3 Bft)
20.05.2010 18:54 21,9 C 20,6 C 2,3 UV-I 0,0 C 41 % 42 % 0 % 1030,5 hPa 0,0 l/m 13,7 km/h (3 Bft) 0 min 9,0 km/h (2 Bft)
20.05.2010 18:56 21,8 C 20,7 C 2,4 UV-I 0,0 C 42 % 42 % 0 % 1030,5 hPa 0,0 l/m 11,6 km/h (2 Bft) 0 min 9,7 km/h (2 Bft)
20.05.2010 18:58 21,8 C 20,6 C 2,4 UV-I 0,0 C 42 % 42 % 0 % 1030,5 hPa 0,0 l/m 10,8 km/h (2 Bft) 0 min 8,0 km/h (2 Bft)
20.05.2010 19:00 21,8 C 20,6 C 2,4 UV-I 0,0 C 42 % 42 % 0 % 1030,5 hPa 0,0 l/m 9,6 km/h (2 Bft) 0 min 11,6 km/h (2 Bft)
20.05.2010 19:02 21,7 C 20,5 C 2,1 UV-I 0,0 C 42 % 42 % 0 % 1030,5 hPa 0,0 l/m 10,0 km/h (2 Bft) 0 min 14,8 km/h (3 Bft)
20.05.2010 19:04 21,7 C 20,6 C 2,1 UV-I 0,0 C 42 % 42 % 0 % 1030,5 hPa 0,0 l/m 10,0 km/h (2 Bft) 0 min 5,1 km/h (1 Bft)
20.05.2010 19:06 21,7 C 20,6 C 1,9 UV-I 0,0 C 42 % 42 % 0 % 1030,5 hPa 0,0 l/m 10,8 km/h (2 Bft) 0 min 15,4 km/h (3 Bft)
20.05.2010 19:08 21,6 C 20,5 C 1,9 UV-I 0,0 C 42 % 42 % 0 % 1030,5 hPa 0,0 l/m 11,2 km/h (2 Bft) 0 min 5,8 km/h (2 Bft)
20.05.2010 19:10 21,6 C 20,5 C 1,9 UV-I 0,0 C 42 % 43 % 0 % 1030,5 hPa 0,0 l/m 12,4 km/h (3 Bft) 0 min 12,2 km/h (2 Bft)
20.05.2010 19:12 21,6 C 20,4 C 1,8 UV-I 0,0 C 42 % 43 % 0 % 1030,8 hPa 0,0 l/m 12,4 km/h (3 Bft) 0 min 17,1 km/h (3 Bft)
20.05.2010 19:14 21,6 C 20,5 C 1,8 UV-I 0,0 C 42 % 43 % 0 % 1030,8 hPa 0,0 l/m 12,4 km/h (3 Bft) 0 min 8,4 km/h (2 Bft)
20.05.2010 19:16 21,5 C 20,4 C 1,7 UV-I 0,0 C 42 % 43 % 0 % 1030,8 hPa 0,0 l/m 12,0 km/h (2 Bft) 0 min 9,7 km/h (2 Bft)
20.05.2010 19:18 21,5 C 20,4 C 1,7 UV-I 0,0 C 42 % 43 % 0 % 1030,8 hPa 0,0 l/m 12,4 km/h (3 Bft) 0 min 10,9 km/h (2 Bft)
20.05.2010 19:20 21,4 C 20,4 C 1,7 UV-I 0,0 C 42 % 43 % 0 % 1030,8 hPa 0,0 l/m 12,8 km/h (3 Bft) 0 min 13,2 km/h (3 Bft)
20.05.2010 19:22 21,4 C 20,5 C 1,7 UV-I 0,0 C 42 % 43 % 0 % 1030,8 hPa 0,0 l/m 12,8 km/h (3 Bft) 0 min 13,8 km/h (3 Bft)
20.05.2010 19:24 21,4 C 20,4 C 1,7 UV-I 0,0 C 42 % 43 % 0 % 1030,8 hPa 0,0 l/m 12,0 km/h (2 Bft) 0 min 14,5 km/h (3 Bft)
20.05.2010 19:26 21,4 C 20,4 C 1,6 UV-I 0,0 C 43 % 43 % 0 % 1030,8 hPa 0,0 l/m 12,4 km/h (3 Bft) 0 min 10,9 km/h (2 Bft)
20.05.2010 19:28 21,2 C 20,4 C 1,6 UV-I 0,0 C 43 % 43 % 0 % 1030,8 hPa 0,0 l/m 12,0 km/h (2 Bft) 0 min 8,7 km/h (2 Bft)
20.05.2010 19:30 21,2 C 20,4 C 1,6 UV-I 0,0 C 43 % 43 % 0 % 1030,8 hPa 0,0 l/m 10,8 km/h (2 Bft) 0 min 5,8 km/h (2 Bft)
20.05.2010 19:32 21,3 C 20,3 C 1,7 UV-I 0,0 C 43 % 43 % 0 % 1030,2 hPa 0,0 l/m 11,2 km/h (2 Bft) 0 min 14,5 km/h (3 Bft)
20.05.2010 19:34 21,2 C 20,3 C 1,7 UV-I 0,0 C 43 % 44 % 0 % 1030,2 hPa 0,0 l/m 10,8 km/h (2 Bft) 0 min 7,7 km/h (2 Bft)
20.05.2010 19:36 21,2 C 20,3 C 1,5 UV-I 0,0 C 43 % 44 % 0 % 1030,2 hPa 0,0 l/m 9,6 km/h (2 Bft) 0 min 5,8 km/h (2 Bft)
20.05.2010 19:38 21,2 C 20,2 C 1,5 UV-I 0,0 C 43 % 44 % 0 % 1030,2 hPa 0,0 l/m 8,8 km/h (2 Bft) 0 min 9,7 km/h (2 Bft)
20.05.2010 19:40 21,2 C 20,3 C 1,5 UV-I 0,0 C 43 % 44 % 0 % 1030,2 hPa 0,0 l/m 9,6 km/h (2 Bft) 0 min 11,9 km/h (2 Bft)
20.05.2010 19:42 21,2 C 20,2 C 1,4 UV-I 0,0 C 43 % 44 % 0 % 1030,2 hPa 0,0 l/m 9,6 km/h (2 Bft) 0 min 10,0 km/h (2 Bft)
20.05.2010 19:44 21,1 C 20,2 C 1,4 UV-I 0,0 C 43 % 44 % 0 % 1030,2 hPa 0,0 l/m 8,8 km/h (2 Bft) 0 min 5,8 km/h (2 Bft)
20.05.2010 19:46 21,1 C 20,1 C 1,4 UV-I 0,0 C 43 % 44 % 0 % 1030,2 hPa 0,0 l/m 8,8 km/h (2 Bft) 0 min 8,0 km/h (2 Bft)
20.05.2010 19:48 21,1 C 20,1 C 1,4 UV-I 0,0 C 43 % 45 % 0 % 1030,2 hPa 0,0 l/m 9,2 km/h (2 Bft) 0 min 7,7 km/h (2 Bft)
20.05.2010 19:50 21,1 C 20,1 C 1,4 UV-I 0,0 C 43 % 44 % 0 % 1030,2 hPa 0,0 l/m 8,4 km/h (2 Bft) 0 min 9,3 km/h (2 Bft)
20.05.2010 19:52 21,0 C 20,1 C 1,2 UV-I 0,0 C 43 % 45 % 0 % 1029,9 hPa 0,0 l/m 8,0 km/h (2 Bft) 0 min 7,7 km/h (2 Bft)
20.05.2010 19:54 21,0 C 20,1 C 1,2 UV-I 0,0 C 43 % 45 % 0 % 1029,9 hPa 0,0 l/m 7,6 km/h (2 Bft) 0 min 4,5 km/h (1 Bft)
20.05.2010 19:56 21,0 C 20,0 C 1,3 UV-I 0,0 C 43 % 45 % 0 % 1029,9 hPa 0,0 l/m 8,0 km/h (2 Bft) 0 min 11,9 km/h (2 Bft)
20.05.2010 19:58 21,0 C 20,0 C 1,3 UV-I 0,0 C 43 % 45 % 0 % 1029,9 hPa 0,0 l/m 8,4 km/h (2 Bft) 0 min 5,8 km/h (2 Bft)
20.05.2010 20:00 21,0 C 19,9 C 1,3 UV-I 0,0 C 43 % 45 % 0 % 1029,9 hPa 0,0 l/m 8,8 km/h (2 Bft) 0 min 12,2 km/h (2 Bft)
20.05.2010 20:02 20,9 C 19,9 C 1,0 UV-I 0,0 C 43 % 45 % 0 % 1029,9 hPa 0,0 l/m 9,2 km/h (2 Bft) 0 min 9,3 km/h (2 Bft)
20.05.2010 20:04 20,9 C 19,8 C 1,0 UV-I 0,0 C 43 % 45 % 0 % 1029,9 hPa 0,0 l/m 9,6 km/h (2 Bft) 0 min 14,2 km/h (3 Bft)
20.05.2010 20:06 20,9 C 19,9 C 0,7 UV-I 0,0 C 43 % 45 % 0 % 1029,9 hPa 0,0 l/m 10,8 km/h (2 Bft) 0 min 12,2 km/h (2 Bft)
20.05.2010 20:08 20,9 C 19,7 C 0,7 UV-I 0,0 C 44 % 45 % 0 % 1029,9 hPa 0,0 l/m 10,8 km/h (2 Bft) 0 min 9,0 km/h (2 Bft)
20.05.2010 20:10 20,8 C 19,7 C 0,7 UV-I 0,0 C 43 % 45 % 0 % 1029,9 hPa 0,0 l/m 10,8 km/h (2 Bft) 0 min 13,8 km/h (3 Bft)
20.05.2010 20:12 20,8 C 19,7 C 0,4 UV-I 0,0 C 44 % 45 % 0 % 1030,5 hPa 0,0 l/m 11,2 km/h (2 Bft) 0 min 10,9 km/h (2 Bft)
20.05.2010 20:14 20,8 C 19,6 C 0,4 UV-I 0,0 C 44 % 45 % 0 % 1030,5 hPa 0,0 l/m 11,2 km/h (2 Bft) 0 min 11,3 km/h (2 Bft)
20.05.2010 20:16 20,8 C 19,7 C 0,8 UV-I 0,0 C 44 % 45 % 0 % 1030,5 hPa 0,0 l/m 11,2 km/h (2 Bft) 0 min 13,8 km/h (3 Bft)
20.05.2010 20:18 20,8 C 19,6 C 0,8 UV-I 0,0 C 44 % 46 % 0 % 1030,5 hPa 0,0 l/m 10,4 km/h (2 Bft) 0 min 5,1 km/h (1 Bft)
20.05.2010 20:20 20,8 C 19,5 C 0,8 UV-I 0,0 C 44 % 46 % 0 % 1030,5 hPa 0,0 l/m 10,4 km/h (2 Bft) 0 min 9,7 km/h (2 Bft)
20.05.2010 20:22 20,8 C 19,5 C 0,7 UV-I 0,0 C 44 % 46 % 0 % 1030,5 hPa 0,0 l/m 10,0 km/h (2 Bft) 0 min 5,8 km/h (2 Bft)
20.05.2010 20:24 20,8 C 19,4 C 0,7 UV-I 0,0 C 44 % 46 % 0 % 1030,5 hPa 0,0 l/m 8,8 km/h (2 Bft) 0 min 5,5 km/h (1 Bft)
20.05.2010 20:26 20,7 C 19,5 C 0,2 UV-I 0,0 C 44 % 46 % 0 % 1030,5 hPa 0,0 l/m 8,4 km/h (2 Bft) 0 min 5,1 km/h (1 Bft)
20.05.2010 20:28 20,7 C 19,4 C 0,2 UV-I 0,0 C 44 % 47 % 0 % 1030,5 hPa 0,0 l/m 7,6 km/h (2 Bft) 0 min 8,4 km/h (2 Bft)
20.05.2010 20:30 20,7 C 19,3 C 0,2 UV-I 0,0 C 44 % 47 % 0 % 1030,5 hPa 0,0 l/m 7,6 km/h (2 Bft) 0 min 8,4 km/h (2 Bft)
20.05.2010 20:32 20,7 C 19,3 C 0,1 UV-I 0,0 C 44 % 47 % 0 % 1030,5 hPa 0,0 l/m 7,2 km/h (2 Bft) 0 min 8,4 km/h (2 Bft)
20.05.2010 20:34 20,7 C 19,2 C 0,1 UV-I 0,0 C 44 % 47 % 0 % 1030,5 hPa 0,0 l/m 7,6 km/h (2 Bft) 0 min 10,6 km/h (2 Bft)
20.05.2010 20:36 20,7 C 19,2 C 0,1 UV-I 0,0 C 44 % 47 % 0 % 1030,5 hPa 0,0 l/m 7,6 km/h (2 Bft) 0 min 3,2 km/h (1 Bft)
20.05.2010 20:38 20,6 C 19,1 C 0,1 UV-I 0,0 C 44 % 47 % 0 % 1030,5 hPa 0,0 l/m 7,6 km/h (2 Bft) 0 min 5,1 km/h (1 Bft)
20.05.2010 20:40 20,6 C 19,1 C 0,1 UV-I 0,0 C 44 % 48 % 0 % 1030,5 hPa 0,0 l/m 7,2 km/h (2 Bft) 0 min 5,1 km/h (1 Bft)
20.05.2010 20:42 20,6 C 19,1 C 0,1 UV-I 0,0 C 44 % 48 % 0 % 1030,5 hPa 0,0 l/m 6,4 km/h (2 Bft) 0 min 3,5 km/h (1 Bft)
20.05.2010 20:46 20,6 C 19,1 C 0,1 UV-I 0,0 C 44 % 48 % 0 % 1030,5 hPa 0,0 l/m 4,8 km/h (1 Bft) 0 min 9,0 km/h (2 Bft)
20.05.2010 20:48 20,5 C 19,0 C 0,1 UV-I 0,0 C 44 % 48 % 0 % 1030,5 hPa 0,0 l/m 5,6 km/h (1 Bft) 0 min 10,9 km/h (2 Bft)
20.05.2010 20:50 20,5 C 18,9 C 0,1 UV-I 0,0 C 44 % 48 % 0 % 1030,5 hPa 0,0 l/m 6,0 km/h (2 Bft) 0 min 9,3 km/h (2 Bft)
20.05.2010 20:52 20,5 C 18,8 C 0,1 UV-I 0,0 C 44 % 48 % 0 % 1029,9 hPa 0,0 l/m 6,4 km/h (2 Bft) 0 min 5,5 km/h (1 Bft)
20.05.2010 20:54 20,5 C 18,9 C 0,1 UV-I 0,0 C 44 % 49 % 0 % 1029,9 hPa 0,0 l/m 6,8 km/h (2 Bft) 0 min 0,0 km/h (0 Bft)
20.05.2010 20:56 20,4 C 18,8 C 0,0 UV-I 0,0 C 44 % 49 % 0 % 1029,9 hPa 0,0 l/m 7,2 km/h (2 Bft) 0 min 6,4 km/h (2 Bft)
20.05.2010 20:58 20,4 C 18,7 C 0,0 UV-I 0,0 C 44 % 49 % 0 % 1029,9 hPa 0,0 l/m 6,8 km/h (2 Bft) 0 min 3,5 km/h (1 Bft)
20.05.2010 21:00 20,4 C 18,7 C 0,0 UV-I 0,0 C 44 % 49 % 0 % 1029,9 hPa 0,0 l/m 5,6 km/h (1 Bft) 0 min 6,8 km/h (2 Bft)
20.05.2010 21:02 20,4 C 18,7 C 0,0 UV-I 0,0 C 44 % 49 % 0 % 1029,9 hPa 0,0 l/m 5,2 km/h (1 Bft) 0 min 3,5 km/h (1 Bft)
20.05.2010 21:04 20,4 C 18,7 C 0,0 UV-I 0,0 C 45 % 50 % 0 % 1029,9 hPa 0,0 l/m 4,4 km/h (1 Bft) 0 min 4,5 km/h (1 Bft)
20.05.2010 21:06 20,4 C 18,5 C 0,0 UV-I 0,0 C 45 % 50 % 0 % 1029,9 hPa 0,0 l/m 4,4 km/h (1 Bft) 0 min 3,2 km/h (1 Bft)
20.05.2010 21:08 20,4 C 18,4 C 0,0 UV-I 0,0 C 45 % 50 % 0 % 1029,9 hPa 0,0 l/m 3,6 km/h (1 Bft) 0 min 7,4 km/h (2 Bft)
20.05.2010 21:10 20,4 C 18,4 C 0,0 UV-I 0,0 C 45 % 50 % 0 % 1029,9 hPa 0,0 l/m 3,6 km/h (1 Bft) 0 min 9,0 km/h (2 Bft)
20.05.2010 21:12 20,2 C 18,4 C 0,0 UV-I 0,0 C 45 % 50 % 0 % 1030,1 hPa 0,0 l/m 3,6 km/h (1 Bft) 0 min 0,0 km/h (0 Bft)
20.05.2010 21:14 20,3 C 18,3 C 0,0 UV-I 0,0 C 45 % 50 % 0 % 1030,1 hPa 0,0 l/m 4,0 km/h (1 Bft) 0 min 6,1 km/h (2 Bft)
20.05.2010 21:16 20,3 C 18,2 C 0,0 UV-I 0,0 C 45 % 51 % 0 % 1030,1 hPa 0,0 l/m 4,4 km/h (1 Bft) 0 min 3,9 km/h (1 Bft)
20.05.2010 21:18 20,2 C 18,2 C 0,0 UV-I 0,0 C 45 % 51 % 0 % 1030,1 hPa 0,0 l/m 5,2 km/h (1 Bft) 0 min 9,7 km/h (2 Bft)
20.05.2010 21:20 20,2 C 18,1 C 0,0 UV-I 0,0 C 45 % 51 % 0 % 1030,1 hPa 0,0 l/m 4,8 km/h (1 Bft) 0 min 5,8 km/h (2 Bft)
20.05.2010 21:22 20,2 C 18,1 C 0,0 UV-I 0,0 C 45 % 51 % 0 % 1030,1 hPa 0,0 l/m 4,4 km/h (1 Bft) 0 min 4,8 km/h (1 Bft)
20.05.2010 21:24 20,2 C 18,0 C 0,0 UV-I 0,0 C 45 % 52 % 0 % 1030,1 hPa 0,0 l/m 4,8 km/h (1 Bft) 0 min 0,0 km/h (0 Bft)
20.05.2010 21:26 20,2 C 18,0 C 0,0 UV-I 0,0 C 45 % 52 % 0 % 1030,1 hPa 0,0 l/m 4,0 km/h (1 Bft) 0 min 3,2 km/h (1 Bft)
20.05.2010 21:28 20,2 C 17,9 C 0,0 UV-I 0,0 C 45 % 52 % 0 % 1030,1 hPa 0,0 l/m 3,2 km/h (1 Bft) 0 min 0,0 km/h (0 Bft)
20.05.2010 21:30 20,2 C 17,8 C 0,0 UV-I 0,0 C 45 % 52 % 0 % 1030,1 hPa 0,0 l/m 2,4 km/h (1 Bft) 0 min 4,2 km/h (1 Bft)
20.05.2010 21:32 20,1 C 17,8 C 0,0 UV-I 0,0 C 45 % 52 % 0 % 1029,9 hPa 0,0 l/m 2,0 km/h (1 Bft) 0 min 3,9 km/h (1 Bft)
20.05.2010 21:34 20,1 C 17,7 C 0,0 UV-I 0,0 C 45 % 53 % 0 % 1029,9 hPa 0,0 l/m 1,6 km/h (1 Bft) 0 min 0,0 km/h (0 Bft)
20.05.2010 21:36 20,1 C 17,6 C 0,0 UV-I 0,0 C 45 % 53 % 0 % 1029,9 hPa 0,0 l/m 1,6 km/h (1 Bft) 0 min 0,0 km/h (0 Bft)
20.05.2010 21:38 20,1 C 17,7 C 0,0 UV-I 0,0 C 45 % 53 % 0 % 1029,9 hPa 0,0 l/m 2,0 km/h (1 Bft) 0 min 8,7 km/h (2 Bft)
20.05.2010 21:40 20,0 C 17,6 C 0,0 UV-I 0,0 C 45 % 53 % 0 % 1029,9 hPa 0,0 l/m 2,4 km/h (1 Bft) 0 min 4,8 km/h (1 Bft)
20.05.2010 21:42 20,0 C 17,5 C 0,0 UV-I 0,0 C 46 % 54 % 0 % 1029,9 hPa 0,0 l/m 3,2 km/h (1 Bft) 0 min 8,0 km/h (2 Bft)
20.05.2010 21:44 20,0 C 17,5 C 0,0 UV-I 0,0 C 46 % 54 % 0 % 1029,9 hPa 0,0 l/m 3,6 km/h (1 Bft) 0 min 3,9 km/h (1 Bft)
20.05.2010 21:46 20,0 C 17,4 C 0,0 UV-I 0,0 C 46 % 54 % 0 % 1029,9 hPa 0,0 l/m 3,6 km/h (1 Bft) 0 min 4,8 km/h (1 Bft)
20.05.2010 21:48 20,0 C 17,5 C 0,0 UV-I 0,0 C 46 % 54 % 0 % 1029,9 hPa 0,0 l/m 4,8 km/h (1 Bft) 0 min 12,2 km/h (2 Bft)
20.05.2010 21:50 20,0 C 17,3 C 0,0 UV-I 0,0 C 46 % 55 % 0 % 1029,9 hPa 0,0 l/m 4,8 km/h (1 Bft) 0 min 5,5 km/h (1 Bft)
20.05.2010 21:52 19,9 C 17,3 C 0,0 UV-I 0,0 C 46 % 55 % 0 % 1030,4 hPa 0,0 l/m 4,8 km/h (1 Bft) 0 min 0,0 km/h (0 Bft)
20.05.2010 21:54 19,9 C 17,2 C 0,0 UV-I 0,0 C 46 % 55 % 0 % 1030,4 hPa 0,0 l/m 4,4 km/h (1 Bft) 0 min 4,8 km/h (1 Bft)
20.05.2010 21:56 19,9 C 17,2 C 0,0 UV-I 0,0 C 46 % 55 % 0 % 1030,4 hPa 0,0 l/m 4,4 km/h (1 Bft) 0 min 7,7 km/h (2 Bft)
20.05.2010 21:58 19,9 C 17,2 C 0,0 UV-I 0,0 C 46 % 55 % 0 % 1030,4 hPa 0,0 l/m 4,8 km/h (1 Bft) 0 min 4,5 km/h (1 Bft)
20.05.2010 22:00 19,9 C 17,1 C 0,0 UV-I 0,0 C 46 % 55 % 0 % 1030,4 hPa 0,0 l/m 4,0 km/h (1 Bft) 0 min 3,5 km/h (1 Bft)
20.05.2010 22:02 19,9 C 17,1 C 0,0 UV-I 0,0 C 46 % 55 % 0 % 1030,4 hPa 0,0 l/m 4,0 km/h (1 Bft) 0 min 0,0 km/h (0 Bft)
20.05.2010 22:04 19,9 C 17,1 C 0,0 UV-I 0,0 C 46 % 56 % 0 % 1030,4 hPa 0,0 l/m 4,0 km/h (1 Bft) 0 min 7,7 km/h (2 Bft)
20.05.2010 22:06 19,8 C 17,0 C 0,0 UV-I 0,0 C 46 % 56 % 0 % 1030,4 hPa 0,0 l/m 4,4 km/h (1 Bft) 0 min 8,7 km/h (2 Bft)
20.05.2010 22:08 19,8 C 16,9 C 0,0 UV-I 0,0 C 46 % 56 % 0 % 1030,4 hPa 0,0 l/m 5,2 km/h (1 Bft) 0 min 6,1 km/h (2 Bft)
20.05.2010 22:10 19,8 C 16,8 C 0,0 UV-I 0,0 C 46 % 56 % 0 % 1030,4 hPa 0,0 l/m 4,8 km/h (1 Bft) 0 min 0,0 km/h (0 Bft)
20.05.2010 22:12 19,8 C 16,8 C 0,0 UV-I 0,0 C 46 % 57 % 0 % 1030,6 hPa 0,0 l/m 4,4 km/h (1 Bft) 0 min 5,1 km/h (1 Bft)
20.05.2010 22:14 19,8 C 16,7 C 0,0 UV-I 0,0 C 46 % 57 % 0 % 1030,6 hPa 0,0 l/m 4,8 km/h (1 Bft) 0 min 7,1 km/h (2 Bft)
20.05.2010 22:16 19,8 C 16,7 C 0,0 UV-I 0,0 C 46 % 57 % 0 % 1030,6 hPa 0,0 l/m 4,8 km/h (1 Bft) 0 min 7,1 km/h (2 Bft)
20.05.2010 22:18 19,8 C 16,6 C 0,0 UV-I 0,0 C 46 % 57 % 0 % 1030,6 hPa 0,0 l/m 4,0 km/h (1 Bft) 0 min 6,4 km/h (2 Bft)
20.05.2010 22:20 19,8 C 16,7 C 0,0 UV-I 0,0 C 46 % 57 % 0 % 1030,6 hPa 0,0 l/m 4,0 km/h (1 Bft) 0 min 7,1 km/h (2 Bft)
20.05.2010 22:22 19,8 C 16,5 C 0,0 UV-I 0,0 C 46 % 58 % 0 % 1030,6 hPa 0,0 l/m 4,4 km/h (1 Bft) 0 min 7,7 km/h (2 Bft)
20.05.2010 22:24 19,8 C 16,5 C 0,0 UV-I 0,0 C 46 % 58 % 0 % 1030,6 hPa 0,0 l/m 4,8 km/h (1 Bft) 0 min 3,2 km/h (1 Bft)
20.05.2010 22:26 19,8 C 16,4 C 0,0 UV-I 0,0 C 46 % 58 % 0 % 1030,6 hPa 0,0 l/m 4,8 km/h (1 Bft) 0 min 4,2 km/h (1 Bft)
20.05.2010 22:28 19,8 C 16,4 C 0,0 UV-I 0,0 C 47 % 58 % 0 % 1030,6 hPa 0,0 l/m 4,8 km/h (1 Bft) 0 min 7,1 km/h (2 Bft)
20.05.2010 22:30 19,7 C 16,4 C 0,0 UV-I 0,0 C 47 % 58 % 0 % 1030,6 hPa 0,0 l/m 4,8 km/h (1 Bft) 0 min 7,7 km/h (2 Bft)
20.05.2010 22:32 19,7 C 16,3 C 0,0 UV-I 0,0 C 47 % 58 % 0 % 1030,4 hPa 0,0 l/m 5,2 km/h (1 Bft) 0 min 5,8 km/h (2 Bft)
20.05.2010 22:34 19,7 C 16,3 C 0,0 UV-I 0,0 C 47 % 59 % 0 % 1030,4 hPa 0,0 l/m 5,2 km/h (1 Bft) 0 min 6,4 km/h (2 Bft)
20.05.2010 22:36 19,7 C 16,3 C 0,0 UV-I 0,0 C 47 % 59 % 0 % 1030,4 hPa 0,0 l/m 5,2 km/h (1 Bft) 0 min 3,2 km/h (1 Bft)
20.05.2010 22:38 19,7 C 16,3 C 0,0 UV-I 0,0 C 47 % 59 % 0 % 1030,4 hPa 0,0 l/m 5,2 km/h (1 Bft) 0 min 10,3 km/h (2 Bft)
20.05.2010 22:40 19,7 C 16,3 C 0,0 UV-I 0,0 C 47 % 59 % 0 % 1030,4 hPa 0,0 l/m 5,2 km/h (1 Bft) 0 min 5,5 km/h (1 Bft)
20.05.2010 22:42 19,7 C 16,2 C 0,0 UV-I 0,0 C 47 % 59 % 0 % 1030,4 hPa 0,0 l/m 5,6 km/h (1 Bft) 0 min 6,4 km/h (2 Bft)
20.05.2010 22:44 19,7 C 16,1 C 0,0 UV-I 0,0 C 47 % 59 % 0 % 1030,4 hPa 0,0 l/m 6,0 km/h (2 Bft) 0 min 4,2 km/h (1 Bft)
20.05.2010 22:46 19,7 C 16,1 C 0,0 UV-I 0,0 C 47 % 59 % 0 % 1030,4 hPa 0,0 l/m 5,6 km/h (1 Bft) 0 min 5,8 km/h (2 Bft)
20.05.2010 22:48 19,6 C 16,0 C 0,0 UV-I 0,0 C 47 % 59 % 0 % 1030,4 hPa 0,0 l/m 6,8 km/h (2 Bft) 0 min 10,6 km/h (2 Bft)
20.05.2010 22:50 19,6 C 16,0 C 0,0 UV-I 0,0 C 47 % 59 % 0 % 1030,4 hPa 0,0 l/m 7,2 km/h (2 Bft) 0 min 7,7 km/h (2 Bft)
20.05.2010 22:52 19,6 C 16,0 C 0,0 UV-I 0,0 C 47 % 59 % 0 % 1030,5 hPa 0,0 l/m 7,2 km/h (2 Bft) 0 min 6,4 km/h (2 Bft)
20.05.2010 22:54 19,6 C 16,0 C 0,0 UV-I 0,0 C 47 % 59 % 0 % 1030,5 hPa 0,0 l/m 6,4 km/h (2 Bft) 0 min 4,8 km/h (1 Bft)
20.05.2010 22:56 19,6 C 16,0 C 0,0 UV-I 0,0 C 47 % 60 % 0 % 1030,5 hPa 0,0 l/m 7,2 km/h (2 Bft) 0 min 11,6 km/h (2 Bft)
20.05.2010 22:58 19,6 C 15,9 C 0,0 UV-I 0,0 C 47 % 60 % 0 % 1030,5 hPa 0,0 l/m 6,8 km/h (2 Bft) 0 min 7,4 km/h (2 Bft)
20.05.2010 23:00 19,6 C 15,8 C 0,0 UV-I 0,0 C 47 % 60 % 0 % 1030,5 hPa 0,0 l/m 6,0 km/h (2 Bft) 0 min 5,1 km/h (1 Bft)
20.05.2010 23:02 19,6 C 15,8 C 0,0 UV-I 0,0 C 47 % 60 % 0 % 1030,5 hPa 0,0 l/m 5,2 km/h (1 Bft) 0 min 0,0 km/h (0 Bft)
20.05.2010 23:04 19,6 C 15,8 C 0,0 UV-I 0,0 C 47 % 60 % 0 % 1030,5 hPa 0,0 l/m 5,2 km/h (1 Bft) 0 min 10,6 km/h (2 Bft)
20.05.2010 23:06 19,6 C 15,7 C 0,0 UV-I 0,0 C 47 % 60 % 0 % 1030,5 hPa 0,0 l/m 4,4 km/h (1 Bft) 0 min 8,7 km/h (2 Bft)
20.05.2010 23:08 19,6 C 15,7 C 0,0 UV-I 0,0 C 47 % 60 % 0 % 1030,5 hPa 0,0 l/m 4,0 km/h (1 Bft) 0 min 6,8 km/h (2 Bft)
20.05.2010 23:10 19,6 C 15,6 C 0,0 UV-I 0,0 C 47 % 61 % 0 % 1030,5 hPa 0,0 l/m 4,0 km/h (1 Bft) 0 min 5,8 km/h (2 Bft)
20.05.2010 23:12 19,6 C 15,6 C 0,0 UV-I 0,0 C 47 % 61 % 0 % 1030,9 hPa 0,0 l/m 4,0 km/h (1 Bft) 0 min 6,4 km/h (2 Bft)
20.05.2010 23:14 19,6 C 15,6 C 0,0 UV-I 0,0 C 47 % 61 % 0 % 1030,9 hPa 0,0 l/m 4,4 km/h (1 Bft) 0 min 5,8 km/h (2 Bft)
20.05.2010 23:16 19,6 C 15,5 C 0,0 UV-I 0,0 C 47 % 61 % 0 % 1030,9 hPa 0,0 l/m 3,2 km/h (1 Bft) 0 min 0,0 km/h (0 Bft)
20.05.2010 23:18 19,5 C 15,4 C 0,0 UV-I 0,0 C 47 % 61 % 0 % 1030,9 hPa 0,0 l/m 3,2 km/h (1 Bft) 0 min 0,0 km/h (0 Bft)
20.05.2010 23:20 19,6 C 15,5 C 0,0 UV-I 0,0 C 47 % 61 % 0 % 1030,9 hPa 0,0 l/m 3,2 km/h (1 Bft) 0 min 5,8 km/h (2 Bft)
20.05.2010 23:22 19,6 C 15,4 C 0,0 UV-I 0,0 C 47 % 61 % 0 % 1030,9 hPa 0,0 l/m 3,2 km/h (1 Bft) 0 min 3,2 km/h (1 Bft)
20.05.2010 23:24 19,5 C 15,3 C 0,0 UV-I 0,0 C 47 % 61 % 0 % 1030,9 hPa 0,0 l/m 4,0 km/h (1 Bft) 0 min 6,8 km/h (2 Bft)
20.05.2010 23:26 19,5 C 15,3 C 0,0 UV-I 0,0 C 48 % 61 % 0 % 1030,9 hPa 0,0 l/m 4,4 km/h (1 Bft) 0 min 0,0 km/h (0 Bft)
20.05.2010 23:28 19,5 C 15,3 C 0,0 UV-I 0,0 C 47 % 61 % 0 % 1030,9 hPa 0,0 l/m 4,8 km/h (1 Bft) 0 min 5,1 km/h (1 Bft)
20.05.2010 23:30 19,5 C 15,2 C 0,0 UV-I 0,0 C 48 % 61 % 0 % 1030,9 hPa 0,0 l/m 4,8 km/h (1 Bft) 0 min 0,0 km/h (0 Bft)
20.05.2010 23:32 19,5 C 15,2 C 0,0 UV-I 0,0 C 48 % 61 % 0 % 1030,8 hPa 0,0 l/m 4,0 km/h (1 Bft) 0 min 0,0 km/h (0 Bft)
20.05.2010 23:34 19,5 C 15,2 C 0,0 UV-I 0,0 C 48 % 61 % 0 % 1030,8 hPa 0,0 l/m 2,8 km/h (1 Bft) 0 min 0,0 km/h (0 Bft)
20.05.2010 23:36 19,5 C 15,1 C 0,0 UV-I 0,0 C 48 % 61 % 0 % 1030,8 hPa 0,0 l/m 2,0 km/h (1 Bft) 0 min 0,0 km/h (0 Bft)
20.05.2010 23:38 19,5 C 15,1 C 0,0 UV-I 0,0 C 48 % 62 % 0 % 1030,8 hPa 0,0 l/m 1,2 km/h (1 Bft) 0 min 4,8 km/h (1 Bft)
20.05.2010 23:40 19,5 C 15,1 C 0,0 UV-I 0,0 C 48 % 62 % 0 % 1030,8 hPa 0,0 l/m 1,2 km/h (1 Bft) 0 min 0,0 km/h (0 Bft)
20.05.2010 23:42 19,5 C 15,0 C 0,0 UV-I 0,0 C 48 % 62 % 0 % 1030,8 hPa 0,0 l/m 1,2 km/h (1 Bft) 0 min 4,2 km/h (1 Bft)
20.05.2010 23:44 19,5 C 14,9 C 0,0 UV-I 0,0 C 48 % 62 % 0 % 1030,8 hPa 0,0 l/m 1,2 km/h (1 Bft) 0 min 0,0 km/h (0 Bft)
20.05.2010 23:46 19,4 C 14,8 C 0,0 UV-I 0,0 C 48 % 63 % 0 % 1030,8 hPa 0,0 l/m 1,2 km/h (1 Bft) 0 min 0,0 km/h (0 Bft)
20.05.2010 23:48 19,4 C 14,8 C 0,0 UV-I 0,0 C 48 % 63 % 0 % 1030,8 hPa 0,0 l/m 0,8 km/h (0 Bft) 0 min 0,0 km/h (0 Bft)
20.05.2010 23:50 19,4 C 14,7 C 0,0 UV-I 0,0 C 48 % 63 % 0 % 1030,8 hPa 0,0 l/m 0,4 km/h (0 Bft) 0 min 0,0 km/h (0 Bft)
20.05.2010 23:52 19,5 C 14,7 C 0,0 UV-I 0,0 C 48 % 63 % 0 % 1030,9 hPa 0,0 l/m 0,4 km/h (0 Bft) 0 min 0,0 km/h (0 Bft)
20.05.2010 23:54 19,4 C 14,7 C 0,0 UV-I 0,0 C 48 % 63 % 0 % 1030,9 hPa 0,0 l/m 0,8 km/h (0 Bft) 0 min 0,0 km/h (0 Bft)
20.05.2010 23:56 19,4 C 14,5 C 0,0 UV-I 0,0 C 48 % 63 % 0 % 1030,9 hPa 0,0 l/m 0,8 km/h (0 Bft) 0 min 0,0 km/h (0 Bft)
20.05.2010 23:58 19,4 C 14,5 C 0,0 UV-I 0,0 C 48 % 64 % 0 % 1030,9 hPa 0,0 l/m 0,8 km/h (0 Bft) 0 min 0,0 km/h (0 Bft)
_ Min-Zeit 05:36 05:12 00:00 00:00 16:40 16:10 00:00 01:12 - 02:52 - 01:48
Minimum _ 16,6 C 7,9 C 0,0 UV-I 0,0 C 40 % 38 % 0 % 1029,4 hPa - 0,0 km/h (0 Bft) - 0,0 km/h (0 Bft)
_ Max-Zeit 17:26 16:58 10:12 10:14 09:32 06:40 08:46 15:52 00:00 12:34 08:44 17:54
Maximum _ 23,2 C 21,6 C 12,9 UV-I 6,6 C 52 % 80 % 100 % 1035,2 hPa 0,0 l/m 20,1 km/h
W-SW (4 Bft)
2 min 38,6 km/h
W-SW (5 Bft)
Durchschnitt _ 18,8 C 15,2 C 3,9 UV-I 1,8 C 48 % 59 % 41 % 1031,1 hPa #0,0 l/m 8,3 km/h (2 Bft) #7:54 h 9,4 km/h (2 Bft)
© 2012 W. Hausmann